GEFSSE_prec_meanprecacc_258.txt.gz
Total_Precipitation_Accumulation
0.32 0.29 0.28 0.21 0.20 0.21 0.22 0.27 0.35 0.41 0.33 0.29 0.27 0.31 0.32 0.27 0.24 0.22 0.21 0.24 0.27 0.35 0.41 0.48 0.55 0.63 0.71 0.77 0.80 0.89 1.04 0.95 0.87 0.89 0.93 0.93 1.05 1.09 1.10 1.08 1.18 1.18 0.99
0.28 0.27 0.27 0.22 0.19 0.20 0.23 0.26 0.35 0.42 0.36 0.34 0.30 0.29 0.30 0.30 0.26 0.25 0.25 0.27 0.31 0.37 0.40 0.43 0.48 0.54 0.58 0.61 0.71 0.90 1.10 0.98 1.01 1.17 1.30 1.18 1.23 1.21 1.26 1.23 1.40 1.65 1.15
0.26 0.29 0.25 0.29 0.23 0.20 0.22 0.25 0.33 0.42 0.40 0.41 0.36 0.32 0.32 0.32 0.30 0.30 0.31 0.34 0.41 0.48 0.48 0.50 0.52 0.55 0.56 0.59 0.69 0.85 1.06 1.13 1.24 1.51 1.85 1.62 1.50 1.44 1.38 1.32 1.25 1.27 1.11
0.25 0.26 0.23 0.26 0.28 0.23 0.23 0.25 0.34 0.43 0.42 0.47 0.42 0.36 0.36 0.34 0.35 0.37 0.39 0.41 0.49 0.56 0.58 0.57 0.56 0.57 0.57 0.55 0.65 0.82 1.03 1.21 1.45 1.75 2.15 2.00 1.85 1.89 1.72 1.51 1.29 1.20 1.11
0.31 0.27 0.24 0.25 0.27 0.26 0.26 0.27 0.38 0.46 0.45 0.52 0.48 0.43 0.42 0.42 0.39 0.40 0.43 0.45 0.50 0.56 0.57 0.52 0.48 0.50 0.57 0.56 0.64 0.78 1.04 1.35 1.62 1.90 2.42 2.55 2.59 2.29 1.76 1.46 1.38 1.36 1.26
0.38 0.31 0.24 0.26 0.27 0.30 0.33 0.34 0.46 0.46 0.50 0.58 0.56 0.54 0.51 0.50 0.49 0.48 0.51 0.52 0.52 0.56 0.56 0.55 0.55 0.54 0.60 0.61 0.66 0.77 0.96 1.34 1.55 1.86 2.51 2.70 2.43 2.23 1.82 1.55 1.49 1.38 1.22
0.45 0.37 0.28 0.29 0.34 0.40 0.45 0.46 0.60 0.57 0.60 0.69 0.75 0.69 0.61 0.59 0.56 0.55 0.57 0.59 0.58 0.58 0.58 0.59 0.62 0.61 0.61 0.61 0.66 0.74 0.91 1.23 1.47 2.25 2.51 2.46 2.42 2.30 2.03 1.73 1.58 1.43 1.24
0.49 0.42 0.36 0.35 0.45 0.57 0.62 0.60 0.71 0.67 0.71 0.77 0.83 0.80 0.70 0.64 0.58 0.57 0.59 0.62 0.66 0.69 0.65 0.60 0.57 0.57 0.60 0.63 0.64 0.72 0.92 1.02 1.24 1.83 2.17 2.14 2.02 2.02 2.11 1.81 1.59 1.48 1.35
0.66 0.53 0.46 0.43 0.53 0.73 0.82 0.75 0.76 0.73 0.75 0.82 0.92 0.91 0.80 0.72 0.65 0.63 0.66 0.69 0.71 0.71 0.65 0.59 0.57 0.58 0.60 0.62 0.68 0.72 0.88 1.07 1.25 1.66 1.74 1.90 1.70 1.81 2.08 1.94 1.60 1.46 1.41
0.98 0.79 0.67 0.66 0.71 0.79 0.82 0.86 0.83 0.80 0.86 0.92 0.97 0.94 0.86 0.78 0.73 0.74 0.70 0.75 0.72 0.74 0.74 0.72 0.70 0.70 0.68 0.67 0.71 0.78 0.90 1.05 1.14 1.46 2.08 2.00 1.65 2.02 2.22 2.03 1.75 1.61 1.48
1.14 1.20 1.10 0.96 0.94 0.95 0.91 0.91 0.98 0.95 0.94 0.97 1.00 0.95 0.89 0.91 1.02 0.97 0.84 0.87 0.87 0.92 1.00 0.95 0.89 0.88 0.84 0.83 0.89 0.98 1.01 0.88 1.18 1.78 2.35 2.14 1.92 2.22 2.32 2.17 1.99 1.87 1.71
1.37 1.48 1.48 1.42 1.37 1.29 1.21 1.34 1.34 1.16 1.09 1.07 1.18 1.09 1.06 1.32 1.44 1.26 1.31 1.27 1.24 1.22 1.22 1.21 1.14 1.05 0.97 0.90 1.01 1.10 0.96 1.01 1.46 2.08 2.13 1.73 2.04 2.47 2.58 2.40 2.23 2.17 2.08
1.73 1.55 1.45 1.57 1.66 1.78 1.87 1.73 1.68 1.63 1.61 1.53 1.63 1.55 1.58 1.78 1.71 1.70 1.77 1.63 1.51 1.47 1.43 1.56 1.40 1.09 0.98 1.06 1.17 1.15 1.09 1.20 1.50 1.95 2.06 1.87 2.13 2.59 2.79 2.66 2.42 2.39 2.44
2.02 1.88 1.64 1.59 1.67 1.87 2.05 1.99 1.92 1.87 1.87 1.82 1.87 1.71 1.93 2.11 2.19 2.21 2.27 2.05 1.97 1.94 1.99 1.97 1.84 1.54 1.36 1.32 1.29 1.33 1.40 1.41 1.61 1.90 1.98 1.74 1.89 2.38 2.89 2.93 2.67 2.56 2.56
2.41 2.28 2.11 1.89 1.86 2.00 2.25 2.36 2.22 2.22 2.20 2.31 2.43 2.19 2.22 2.25 2.32 2.63 2.63 2.80 2.46 2.42 2.50 2.44 2.22 2.09 1.90 1.72 1.62 1.57 1.64 1.64 1.70 1.86 1.84 1.78 1.89 2.24 2.72 2.97 2.94 2.94 2.91
3.01 2.72 2.47 2.30 2.14 2.14 2.24 2.51 2.56 2.41 2.47 2.59 2.71 2.58 2.58 2.64 2.75 3.10 3.23 3.21 2.98 3.02 3.21 3.25 3.02 2.73 2.46 2.36 2.13 2.06 2.01 2.04 2.16 2.18 2.09 1.97 1.85 1.93 2.39 2.84 3.14 3.32 3.30
3.20 3.09 2.86 2.74 2.68 2.51 2.47 2.73 2.81 2.71 2.65 2.66 2.86 2.94 2.91 2.99 3.30 3.42 3.72 3.68 3.45 3.46 3.51 3.49 3.70 3.63 3.10 2.75 2.57 2.52 2.49 2.42 2.56 2.67 2.69 2.45 2.12 2.02 2.16 2.48 2.79 3.00 3.13
3.38 3.14 3.06 2.76 2.71 2.92 2.95 3.23 3.15 3.22 3.34 3.24 3.25 3.44 3.46 3.51 3.65 3.71 3.73 3.81 3.71 3.68 3.98 4.10 4.06 3.95 3.67 3.29 3.08 2.85 2.71 2.77 2.62 2.63 2.70 2.59 2.50 2.15 1.99 2.00 2.17 2.39 2.77
2.87 2.92 3.04 2.96 2.92 2.99 3.19 3.55 3.68 3.85 4.03 4.21 4.23 4.42 4.34 4.15 4.10 4.19 4.15 4.26 4.10 4.15 4.12 4.00 4.36 4.26 4.09 3.69 3.21 2.98 2.70 2.70 2.63 2.34 2.36 2.41 2.39 2.25 2.12 1.91 1.98 2.16 2.52
2.79 2.92 3.08 3.24 3.43 3.38 3.41 3.63 4.07 4.30 4.44 4.81 4.86 4.89 4.98 4.97 4.84 4.84 4.80 4.79 4.63 4.50 4.38 4.33 4.38 4.18 4.05 3.77 3.23 2.98 2.66 2.34 2.30 2.31 2.08 2.16 2.15 1.98 2.05 2.03 2.07 1.94 2.17
2.94 3.10 3.09 3.29 3.65 3.88 4.24 4.22 4.41 4.86 5.23 5.35 5.44 5.42 5.34 5.27 5.27 5.11 4.95 5.05 4.88 4.64 4.40 4.32 4.29 4.19 3.87 3.77 3.75 3.34 2.73 2.35 2.16 2.00 2.00 2.03 1.88 1.89 2.14 2.11 2.05 1.95 1.87
2.93 3.19 3.32 3.47 3.93 4.41 4.94 5.44 5.82 6.17 6.16 6.27 6.22 6.10 5.80 5.62 5.54 5.38 5.36 5.18 4.94 4.77 4.50 4.33 4.27 4.16 3.83 3.79 3.83 3.79 3.08 2.56 2.02 1.60 1.70 1.75 1.70 1.76 1.86 1.81 1.77 1.82 1.84
2.87 3.15 3.33 3.69 4.35 5.17 5.69 6.16 6.72 7.03 6.72 6.43 6.15 6.07 5.99 5.91 5.81 5.67 5.64 5.38 5.12 4.84 4.48 4.22 4.09 3.98 3.84 3.82 3.73 3.87 3.33 2.68 2.17 1.77 1.57 1.48 1.54 1.68 1.68 1.72 1.67 1.66 1.74
2.92 3.05 3.28 3.92 4.66 5.32 5.89 6.50 7.10 7.40 7.43 7.20 6.64 6.16 5.76 5.47 5.25 5.12 5.07 4.91 4.71 4.41 4.16 3.86 3.76 3.71 3.83 3.67 3.60 3.43 3.17 2.79 2.55 2.19 1.84 1.62 1.55 1.56 1.58 1.59 1.59 1.62 1.70
2.61 3.10 3.45 4.04 4.74 5.40 6.16 6.91 7.37 7.61 7.59 7.22 6.43 5.65 5.11 4.80 4.51 4.26 4.18 4.09 3.94 3.74 3.55 3.46 3.46 3.41 3.39 3.25 3.12 3.10 3.10 3.02 2.72 2.40 2.08 1.82 1.72 1.62 1.60 1.62 1.73 1.74 1.71
2.54 2.95 3.44 3.75 4.36 5.05 5.67 6.26 6.50 6.69 6.63 6.20 5.78 5.28 4.86 4.34 3.88 3.52 3.36 3.26 3.12 3.01 2.99 3.00 3.04 3.02 3.02 3.00 2.93 2.82 2.75 2.73 2.56 2.47 2.21 1.97 1.95 1.81 1.72 1.65 1.61 1.66 1.69

GEFSSE_prec_meanprecacc_264.txt.gz
Total_Precipitation_Accumulation
0.33 0.30 0.31 0.25 0.23 0.22 0.24 0.28 0.36 0.42 0.35 0.30 0.29 0.33 0.33 0.27 0.25 0.24 0.25 0.28 0.34 0.41 0.45 0.52 0.59 0.68 0.76 0.84 0.89 0.98 1.17 1.16 1.00 0.99 1.02 1.04 1.15 1.18 1.20 1.17 1.22 1.22 1.06
0.29 0.28 0.29 0.25 0.22 0.22 0.24 0.28 0.36 0.43 0.37 0.36 0.32 0.31 0.32 0.32 0.28 0.26 0.28 0.30 0.36 0.42 0.43 0.48 0.53 0.58 0.63 0.68 0.78 0.99 1.20 1.08 1.10 1.28 1.43 1.32 1.36 1.34 1.37 1.30 1.43 1.69 1.22
0.26 0.30 0.26 0.32 0.26 0.22 0.24 0.27 0.34 0.43 0.42 0.43 0.39 0.34 0.34 0.34 0.31 0.32 0.34 0.37 0.45 0.54 0.52 0.53 0.58 0.62 0.64 0.65 0.76 0.95 1.21 1.27 1.37 1.63 2.00 1.76 1.64 1.58 1.50 1.39 1.29 1.31 1.17
0.25 0.27 0.24 0.28 0.31 0.25 0.24 0.27 0.36 0.45 0.44 0.49 0.44 0.38 0.38 0.36 0.37 0.38 0.42 0.43 0.52 0.60 0.62 0.62 0.62 0.65 0.64 0.62 0.75 0.94 1.14 1.34 1.60 1.87 2.25 2.10 1.95 2.01 1.83 1.59 1.38 1.27 1.17
0.31 0.28 0.26 0.27 0.29 0.28 0.28 0.29 0.40 0.48 0.47 0.55 0.50 0.45 0.44 0.44 0.42 0.42 0.45 0.47 0.51 0.59 0.60 0.57 0.54 0.57 0.64 0.63 0.73 0.86 1.11 1.44 1.72 1.99 2.48 2.64 2.70 2.41 1.86 1.54 1.46 1.44 1.33
0.39 0.33 0.26 0.29 0.29 0.33 0.35 0.36 0.48 0.48 0.52 0.60 0.58 0.56 0.54 0.54 0.52 0.50 0.54 0.55 0.54 0.59 0.60 0.60 0.61 0.61 0.66 0.69 0.75 0.84 1.02 1.40 1.64 1.90 2.55 2.77 2.51 2.34 1.92 1.63 1.54 1.44 1.27
0.47 0.39 0.30 0.32 0.37 0.42 0.46 0.47 0.61 0.58 0.63 0.71 0.76 0.71 0.64 0.62 0.59 0.57 0.59 0.62 0.61 0.61 0.62 0.63 0.68 0.67 0.67 0.70 0.75 0.80 0.95 1.28 1.52 2.28 2.54 2.50 2.48 2.40 2.15 1.85 1.67 1.49 1.29
0.53 0.44 0.38 0.37 0.49 0.61 0.65 0.62 0.72 0.68 0.73 0.80 0.86 0.82 0.73 0.67 0.60 0.59 0.61 0.65 0.69 0.72 0.69 0.64 0.62 0.61 0.65 0.71 0.72 0.78 0.97 1.06 1.28 1.88 2.22 2.20 2.09 2.13 2.24 1.93 1.69 1.56 1.41
0.66 0.54 0.47 0.44 0.56 0.76 0.86 0.78 0.78 0.73 0.77 0.85 0.96 0.96 0.84 0.74 0.67 0.65 0.69 0.73 0.75 0.75 0.68 0.62 0.62 0.64 0.64 0.68 0.76 0.79 0.94 1.12 1.31 1.72 1.81 1.98 1.79 1.94 2.23 2.07 1.69 1.53 1.48
0.99 0.79 0.68 0.68 0.72 0.81 0.84 0.88 0.85 0.81 0.87 0.94 1.00 0.99 0.93 0.84 0.77 0.77 0.73 0.79 0.77 0.79 0.78 0.76 0.75 0.74 0.71 0.71 0.78 0.87 0.98 1.11 1.21 1.54 2.15 2.09 1.77 2.18 2.38 2.16 1.85 1.70 1.55
1.15 1.21 1.12 0.98 0.96 0.97 0.94 0.94 1.00 0.96 0.95 0.99 1.02 0.98 0.95 0.96 1.06 1.02 0.87 0.91 0.92 0.99 1.05 1.00 0.94 0.93 0.88 0.88 0.96 1.07 1.11 0.95 1.23 1.85 2.42 2.21 2.02 2.36 2.48 2.27 2.08 1.96 1.79
1.38 1.50 1.50 1.44 1.39 1.33 1.25 1.36 1.37 1.18 1.10 1.08 1.19 1.10 1.07 1.35 1.46 1.29 1.35 1.32 1.30 1.29 1.29 1.28 1.19 1.09 1.01 0.93 1.05 1.17 1.03 1.07 1.50 2.12 2.18 1.79 2.10 2.56 2.68 2.48 2.30 2.25 2.17
1.75 1.57 1.47 1.60 1.70 1.82 1.93 1.77 1.70 1.65 1.62 1.55 1.64 1.56 1.59 1.80 1.73 1.74 1.80 1.66 1.55 1.53 1.51 1.64 1.47 1.13 1.01 1.09 1.19 1.17 1.12 1.23 1.54 1.99 2.09 1.91 2.17 2.65 2.86 2.73 2.49 2.46 2.51
2.05 1.90 1.68 1.63 1.70 1.90 2.10 2.06 1.96 1.90 1.89 1.84 1.88 1.72 1.94 2.14 2.22 2.24 2.29 2.07 1.99 1.97 2.04 2.03 1.91 1.60 1.40 1.36 1.32 1.35 1.42 1.44 1.63 1.92 2.01 1.76 1.91 2.42 2.94 2.99 2.74 2.63 2.63
2.44 2.32 2.15 1.92 1.88 2.03 2.28 2.41 2.29 2.28 2.24 2.35 2.45 2.21 2.23 2.27 2.35 2.65 2.65 2.81 2.48 2.44 2.52 2.46 2.26 2.15 1.95 1.76 1.66 1.60 1.66 1.66 1.71 1.89 1.87 1.81 1.93 2.28 2.76 3.03 3.02 3.01 2.98
3.04 2.74 2.50 2.32 2.16 2.16 2.27 2.55 2.61 2.46 2.55 2.67 2.76 2.62 2.59 2.65 2.77 3.12 3.24 3.23 2.99 3.04 3.22 3.26 3.03 2.76 2.50 2.40 2.17 2.09 2.04 2.05 2.17 2.19 2.11 2.00 1.89 1.96 2.45 2.91 3.21 3.40 3.39
3.23 3.11 2.89 2.76 2.71 2.52 2.50 2.76 2.85 2.76 2.71 2.75 2.94 2.99 2.93 3.00 3.31 3.44 3.74 3.70 3.47 3.49 3.52 3.50 3.72 3.65 3.13 2.78 2.61 2.55 2.52 2.44 2.58 2.69 2.71 2.47 2.15 2.06 2.22 2.55 2.86 3.08 3.21
3.40 3.17 3.08 2.78 2.73 2.95 2.97 3.26 3.18 3.25 3.38 3.29 3.31 3.51 3.50 3.53 3.66 3.72 3.75 3.83 3.73 3.73 4.01 4.12 4.08 3.97 3.69 3.31 3.10 2.89 2.74 2.80 2.66 2.65 2.72 2.60 2.52 2.18 2.03 2.05 2.22 2.45 2.83
2.89 2.95 3.07 3.00 2.95 3.01 3.21 3.58 3.71 3.88 4.06 4.25 4.28 4.47 4.37 4.17 4.12 4.20 4.17 4.28 4.14 4.19 4.16 4.04 4.39 4.28 4.11 3.71 3.24 3.02 2.75 2.74 2.67 2.38 2.40 2.43 2.41 2.27 2.15 1.97 2.03 2.21 2.56
2.83 2.95 3.10 3.27 3.48 3.43 3.46 3.68 4.11 4.33 4.47 4.84 4.90 4.93 5.01 5.00 4.85 4.87 4.82 4.82 4.67 4.54 4.43 4.39 4.42 4.21 4.08 3.80 3.29 3.04 2.71 2.40 2.35 2.34 2.11 2.19 2.17 2.00 2.08 2.08 2.13 1.99 2.21
2.97 3.14 3.11 3.32 3.70 3.93 4.29 4.26 4.45 4.90 5.25 5.38 5.47 5.46 5.37 5.30 5.31 5.14 4.99 5.09 4.94 4.69 4.45 4.38 4.35 4.25 3.92 3.83 3.82 3.41 2.79 2.39 2.19 2.02 2.01 2.05 1.90 1.90 2.17 2.16 2.09 1.99 1.90
2.99 3.23 3.35 3.49 3.97 4.44 4.97 5.47 5.86 6.20 6.19 6.30 6.25 6.15 5.85 5.66 5.57 5.40 5.38 5.22 4.99 4.83 4.56 4.37 4.33 4.23 3.89 3.85 3.89 3.85 3.12 2.60 2.05 1.61 1.70 1.76 1.72 1.78 1.89 1.84 1.81 1.86 1.87
2.95 3.20 3.36 3.72 4.38 5.20 5.73 6.20 6.75 7.05 6.73 6.45 6.17 6.10 6.02 5.95 5.84 5.69 5.66 5.40 5.16 4.89 4.54 4.27 4.13 4.03 3.89 3.86 3.77 3.90 3.36 2.70 2.20 1.78 1.57 1.49 1.55 1.70 1.70 1.75 1.71 1.70 1.77
2.94 3.09 3.31 3.97 4.70 5.35 5.92 6.54 7.13 7.41 7.43 7.21 6.65 6.17 5.77 5.49 5.27 5.14 5.09 4.94 4.75 4.45 4.20 3.91 3.80 3.74 3.85 3.70 3.64 3.46 3.20 2.81 2.57 2.20 1.85 1.63 1.56 1.58 1.61 1.62 1.62 1.66 1.73
2.62 3.13 3.49 4.09 4.78 5.42 6.18 6.93 7.38 7.62 7.60 7.23 6.43 5.66 5.11 4.80 4.52 4.28 4.20 4.12 3.98 3.78 3.59 3.50 3.51 3.45 3.41 3.27 3.14 3.13 3.13 3.05 2.74 2.41 2.10 1.83 1.74 1.63 1.62 1.64 1.76 1.77 1.74
2.55 2.97 3.46 3.77 4.38 5.07 5.69 6.28 6.51 6.71 6.64 6.21 5.78 5.29 4.88 4.36 3.90 3.54 3.38 3.29 3.15 3.04 3.04 3.05 3.10 3.07 3.08 3.04 2.96 2.85 2.79 2.77 2.59 2.49 2.22 1.98 1.97 1.83 1.73 1.67 1.63 1.68 1.72

GEFSSE_prec_meanprecacc_270.txt.gz
Total_Precipitation_Accumulation
0.34 0.30 0.31 0.26 0.25 0.24 0.26 0.30 0.39 0.45 0.38 0.34 0.34 0.38 0.37 0.31 0.29 0.30 0.31 0.34 0.40 0.47 0.52 0.61 0.69 0.77 0.81 0.89 0.94 1.06 1.27 1.27 1.13 1.12 1.15 1.17 1.25 1.28 1.29 1.24 1.27 1.25 1.10
0.30 0.28 0.29 0.26 0.23 0.24 0.27 0.30 0.39 0.46 0.39 0.39 0.37 0.36 0.36 0.35 0.31 0.31 0.32 0.34 0.41 0.48 0.50 0.56 0.61 0.68 0.72 0.76 0.85 1.08 1.30 1.17 1.23 1.44 1.60 1.49 1.49 1.43 1.46 1.38 1.48 1.73 1.27
0.26 0.30 0.26 0.32 0.28 0.24 0.26 0.29 0.36 0.46 0.45 0.46 0.42 0.38 0.38 0.37 0.35 0.36 0.38 0.40 0.48 0.58 0.58 0.61 0.69 0.74 0.75 0.74 0.84 1.04 1.30 1.37 1.48 1.80 2.21 1.91 1.77 1.70 1.60 1.47 1.36 1.37 1.23
0.26 0.27 0.24 0.28 0.31 0.26 0.26 0.29 0.38 0.48 0.47 0.53 0.48 0.43 0.42 0.40 0.40 0.42 0.45 0.46 0.55 0.63 0.66 0.68 0.71 0.75 0.72 0.70 0.84 1.02 1.22 1.42 1.70 2.04 2.44 2.27 2.11 2.14 1.92 1.66 1.44 1.33 1.23
0.32 0.28 0.26 0.27 0.30 0.30 0.29 0.31 0.42 0.50 0.50 0.58 0.55 0.52 0.51 0.49 0.46 0.45 0.48 0.49 0.55 0.64 0.65 0.62 0.60 0.63 0.70 0.71 0.82 0.96 1.19 1.50 1.79 2.08 2.62 2.82 2.87 2.55 1.96 1.60 1.53 1.50 1.38
0.40 0.33 0.26 0.29 0.30 0.35 0.37 0.38 0.50 0.51 0.55 0.64 0.63 0.63 0.61 0.62 0.58 0.53 0.57 0.60 0.58 0.64 0.65 0.65 0.67 0.67 0.71 0.76 0.83 0.95 1.11 1.46 1.69 1.95 2.63 2.88 2.62 2.45 2.02 1.70 1.60 1.49 1.33
0.48 0.40 0.30 0.33 0.39 0.45 0.49 0.50 0.64 0.61 0.65 0.75 0.80 0.76 0.69 0.69 0.65 0.62 0.65 0.68 0.66 0.65 0.66 0.69 0.75 0.74 0.73 0.79 0.85 0.90 1.03 1.34 1.55 2.31 2.59 2.57 2.56 2.49 2.24 1.94 1.78 1.58 1.37
0.54 0.45 0.39 0.39 0.53 0.65 0.67 0.65 0.76 0.72 0.76 0.84 0.90 0.86 0.77 0.71 0.66 0.65 0.68 0.71 0.75 0.78 0.73 0.69 0.68 0.67 0.73 0.82 0.84 0.87 1.03 1.12 1.30 1.90 2.25 2.25 2.15 2.22 2.33 2.04 1.80 1.66 1.51
0.67 0.54 0.48 0.47 0.65 0.88 0.91 0.82 0.82 0.77 0.80 0.89 1.01 1.01 0.89 0.79 0.72 0.70 0.74 0.78 0.82 0.81 0.73 0.66 0.66 0.68 0.70 0.76 0.86 0.88 1.00 1.18 1.35 1.75 1.83 2.01 1.82 1.99 2.30 2.16 1.78 1.63 1.58
0.99 0.80 0.70 0.70 0.78 0.88 0.90 0.93 0.89 0.84 0.91 0.98 1.05 1.07 0.99 0.90 0.83 0.82 0.79 0.84 0.83 0.87 0.85 0.81 0.79 0.79 0.77 0.77 0.86 0.98 1.07 1.18 1.29 1.60 2.18 2.12 1.79 2.22 2.44 2.23 1.93 1.79 1.67
1.15 1.21 1.13 1.00 0.98 1.00 0.97 0.98 1.04 1.00 1.00 1.03 1.06 1.05 1.01 1.02 1.13 1.07 0.92 0.97 0.98 1.06 1.13 1.07 1.01 0.98 0.93 0.93 1.01 1.13 1.20 1.03 1.32 1.95 2.47 2.26 2.07 2.42 2.56 2.36 2.16 2.04 1.89
1.39 1.51 1.51 1.46 1.41 1.35 1.27 1.40 1.41 1.22 1.13 1.11 1.22 1.14 1.12 1.39 1.50 1.33 1.40 1.40 1.38 1.36 1.38 1.35 1.25 1.15 1.07 0.98 1.11 1.23 1.09 1.13 1.58 2.19 2.23 1.85 2.17 2.63 2.76 2.57 2.37 2.32 2.24
1.77 1.58 1.49 1.63 1.73 1.85 1.96 1.80 1.74 1.70 1.66 1.58 1.68 1.60 1.62 1.84 1.77 1.77 1.84 1.71 1.61 1.61 1.61 1.72 1.53 1.19 1.07 1.15 1.25 1.22 1.18 1.30 1.61 2.05 2.15 1.95 2.23 2.73 2.93 2.80 2.55 2.51 2.57
2.12 1.95 1.71 1.68 1.74 1.93 2.13 2.10 2.01 1.95 1.93 1.88 1.92 1.77 1.97 2.17 2.25 2.26 2.32 2.10 2.03 2.02 2.11 2.10 1.98 1.66 1.45 1.39 1.36 1.38 1.45 1.49 1.68 1.97 2.05 1.80 1.98 2.50 3.01 3.05 2.80 2.69 2.68
2.48 2.36 2.18 1.95 1.90 2.05 2.31 2.44 2.33 2.34 2.29 2.39 2.49 2.24 2.26 2.29 2.37 2.67 2.67 2.85 2.51 2.47 2.56 2.52 2.30 2.17 1.97 1.78 1.69 1.64 1.69 1.69 1.75 1.91 1.89 1.83 1.98 2.33 2.83 3.10 3.07 3.06 3.03
3.05 2.76 2.51 2.34 2.18 2.19 2.31 2.58 2.65 2.51 2.60 2.72 2.82 2.66 2.62 2.67 2.79 3.13 3.25 3.25 3.02 3.07 3.25 3.29 3.06 2.78 2.52 2.42 2.19 2.11 2.08 2.10 2.21 2.21 2.14 2.04 1.92 2.00 2.49 2.95 3.26 3.44 3.44
3.24 3.13 2.91 2.78 2.72 2.55 2.54 2.80 2.89 2.81 2.77 2.82 3.00 3.05 2.98 3.03 3.33 3.46 3.77 3.72 3.49 3.51 3.56 3.54 3.75 3.68 3.15 2.80 2.63 2.58 2.55 2.48 2.62 2.71 2.73 2.51 2.18 2.09 2.26 2.59 2.90 3.12 3.26
3.42 3.18 3.10 2.79 2.75 2.97 3.00 3.29 3.22 3.29 3.42 3.35 3.39 3.57 3.56 3.57 3.70 3.76 3.78 3.85 3.76 3.75 4.05 4.16 4.11 4.00 3.72 3.35 3.14 2.93 2.78 2.84 2.69 2.68 2.74 2.63 2.55 2.22 2.08 2.10 2.27 2.49 2.87
2.91 2.97 3.09 3.01 2.96 3.03 3.23 3.61 3.74 3.91 4.10 4.29 4.34 4.53 4.44 4.24 4.17 4.24 4.20 4.32 4.17 4.22 4.20 4.07 4.43 4.32 4.15 3.76 3.28 3.06 2.78 2.78 2.71 2.41 2.42 2.45 2.44 2.31 2.21 2.01 2.08 2.26 2.61
2.85 2.98 3.12 3.29 3.50 3.46 3.50 3.73 4.16 4.38 4.52 4.89 4.95 4.98 5.06 5.05 4.90 4.89 4.85 4.85 4.71 4.58 4.47 4.43 4.47 4.26 4.13 3.86 3.33 3.07 2.74 2.42 2.38 2.37 2.14 2.22 2.20 2.03 2.11 2.12 2.17 2.03 2.27
3.00 3.17 3.13 3.33 3.72 3.96 4.33 4.33 4.52 4.98 5.31 5.41 5.51 5.51 5.43 5.35 5.35 5.18 5.01 5.12 4.97 4.73 4.50 4.43 4.40 4.30 3.97 3.88 3.88 3.45 2.83 2.41 2.22 2.04 2.04 2.07 1.92 1.92 2.19 2.20 2.14 2.03 1.94
3.02 3.26 3.37 3.50 3.99 4.47 5.03 5.56 5.93 6.29 6.28 6.36 6.30 6.19 5.89 5.71 5.62 5.44 5.41 5.25 5.03 4.88 4.62 4.43 4.38 4.29 3.95 3.91 3.95 3.90 3.16 2.63 2.07 1.63 1.73 1.78 1.74 1.80 1.90 1.87 1.85 1.91 1.91
2.98 3.24 3.38 3.73 4.40 5.24 5.78 6.27 6.81 7.11 6.80 6.51 6.22 6.14 6.06 5.99 5.89 5.74 5.70 5.44 5.20 4.92 4.57 4.32 4.19 4.09 3.95 3.94 3.84 3.97 3.42 2.75 2.23 1.80 1.59 1.51 1.57 1.72 1.72 1.77 1.74 1.75 1.81
2.97 3.12 3.33 3.98 4.71 5.37 5.95 6.59 7.19 7.47 7.50 7.26 6.69 6.20 5.79 5.51 5.30 5.19 5.13 4.98 4.78 4.49 4.24 3.96 3.86 3.80 3.94 3.78 3.71 3.52 3.25 2.87 2.64 2.25 1.87 1.64 1.58 1.59 1.62 1.64 1.65 1.70 1.77
2.64 3.14 3.50 4.10 4.80 5.44 6.20 6.96 7.43 7.66 7.64 7.26 6.47 5.69 5.13 4.83 4.56 4.34 4.25 4.16 4.02 3.82 3.64 3.55 3.57 3.52 3.47 3.33 3.20 3.19 3.19 3.12 2.80 2.47 2.14 1.87 1.76 1.65 1.63 1.65 1.77 1.80 1.78
2.56 2.97 3.47 3.79 4.39 5.08 5.70 6.29 6.54 6.73 6.66 6.23 5.81 5.32 4.90 4.39 3.95 3.60 3.43 3.35 3.20 3.08 3.08 3.10 3.15 3.12 3.13 3.10 3.02 2.90 2.85 2.83 2.64 2.55 2.28 2.03 2.00 1.85 1.74 1.68 1.64 1.71 1.74

GEFSSE_prec_meanprecacc_276.txt.gz
Total_Precipitation_Accumulation
0.34 0.30 0.31 0.26 0.25 0.24 0.27 0.31 0.39 0.46 0.41 0.40 0.39 0.42 0.40 0.34 0.32 0.33 0.35 0.40 0.47 0.56 0.64 0.70 0.80 0.89 0.94 1.02 1.09 1.24 1.43 1.42 1.29 1.23 1.24 1.26 1.35 1.35 1.36 1.30 1.36 1.33 1.15
0.30 0.28 0.29 0.26 0.23 0.24 0.27 0.31 0.39 0.47 0.43 0.44 0.43 0.42 0.41 0.40 0.35 0.33 0.36 0.39 0.47 0.57 0.61 0.65 0.70 0.81 0.83 0.87 0.95 1.21 1.45 1.30 1.35 1.57 1.73 1.63 1.60 1.52 1.53 1.44 1.56 1.80 1.32
0.26 0.30 0.26 0.32 0.28 0.24 0.26 0.30 0.37 0.48 0.48 0.50 0.48 0.44 0.42 0.43 0.40 0.40 0.41 0.44 0.53 0.67 0.69 0.71 0.77 0.86 0.86 0.85 0.92 1.11 1.41 1.46 1.57 1.93 2.37 2.04 1.90 1.80 1.67 1.53 1.41 1.42 1.28
0.26 0.27 0.24 0.28 0.31 0.26 0.26 0.30 0.39 0.50 0.51 0.57 0.52 0.48 0.47 0.45 0.46 0.46 0.49 0.50 0.60 0.70 0.75 0.80 0.81 0.83 0.82 0.81 0.92 1.09 1.30 1.51 1.79 2.17 2.58 2.41 2.25 2.25 2.02 1.73 1.50 1.38 1.29
0.33 0.29 0.26 0.27 0.30 0.30 0.30 0.31 0.43 0.53 0.54 0.62 0.59 0.57 0.58 0.56 0.51 0.48 0.51 0.54 0.60 0.71 0.74 0.72 0.71 0.72 0.77 0.79 0.90 1.04 1.31 1.63 1.92 2.22 2.77 3.02 3.02 2.67 2.07 1.68 1.59 1.55 1.43
0.42 0.35 0.27 0.29 0.31 0.36 0.37 0.39 0.51 0.53 0.60 0.69 0.68 0.69 0.69 0.69 0.63 0.58 0.62 0.64 0.63 0.70 0.73 0.75 0.76 0.75 0.78 0.83 0.90 1.02 1.21 1.59 1.83 2.07 2.77 3.04 2.75 2.55 2.12 1.79 1.68 1.54 1.37
0.50 0.41 0.31 0.33 0.40 0.46 0.50 0.52 0.66 0.63 0.69 0.79 0.85 0.82 0.77 0.75 0.71 0.67 0.71 0.74 0.73 0.71 0.73 0.78 0.84 0.81 0.80 0.88 0.93 0.99 1.11 1.45 1.66 2.42 2.70 2.69 2.68 2.57 2.32 2.03 1.85 1.63 1.41
0.54 0.45 0.39 0.39 0.53 0.66 0.69 0.67 0.78 0.74 0.79 0.88 0.96 0.93 0.84 0.75 0.70 0.69 0.73 0.75 0.80 0.84 0.79 0.75 0.75 0.75 0.81 0.91 0.93 0.98 1.14 1.22 1.38 1.97 2.35 2.37 2.27 2.32 2.42 2.12 1.88 1.74 1.58
0.67 0.54 0.48 0.47 0.65 0.88 0.92 0.83 0.83 0.80 0.84 0.94 1.07 1.08 0.95 0.83 0.74 0.74 0.79 0.81 0.87 0.87 0.78 0.70 0.71 0.73 0.76 0.82 0.92 0.94 1.07 1.26 1.43 1.82 1.93 2.13 1.92 2.09 2.41 2.25 1.87 1.72 1.67
1.00 0.81 0.70 0.70 0.79 0.89 0.91 0.94 0.90 0.87 0.96 1.03 1.10 1.12 1.05 0.95 0.86 0.86 0.83 0.87 0.88 0.92 0.89 0.84 0.83 0.83 0.80 0.81 0.90 1.01 1.11 1.24 1.36 1.67 2.26 2.19 1.86 2.31 2.54 2.32 2.02 1.88 1.77
1.17 1.23 1.14 1.01 1.00 1.01 0.99 1.00 1.05 1.03 1.04 1.08 1.11 1.09 1.05 1.06 1.16 1.11 0.96 1.00 1.02 1.11 1.17 1.10 1.05 1.03 0.97 0.97 1.04 1.17 1.24 1.06 1.37 2.00 2.52 2.31 2.14 2.51 2.65 2.44 2.22 2.09 1.95
1.41 1.54 1.56 1.51 1.43 1.37 1.29 1.42 1.44 1.25 1.17 1.15 1.27 1.17 1.16 1.43 1.53 1.36 1.43 1.43 1.42 1.41 1.42 1.38 1.29 1.20 1.13 1.05 1.17 1.28 1.13 1.16 1.63 2.24 2.28 1.91 2.22 2.70 2.83 2.64 2.42 2.36 2.28
1.81 1.62 1.56 1.73 1.76 1.87 1.99 1.83 1.77 1.73 1.70 1.64 1.74 1.65 1.68 1.88 1.81 1.82 1.88 1.75 1.65 1.64 1.64 1.75 1.57 1.24 1.15 1.29 1.38 1.32 1.28 1.35 1.64 2.10 2.20 2.00 2.27 2.78 2.99 2.88 2.63 2.57 2.61
2.15 1.97 1.75 1.78 1.81 1.96 2.16 2.14 2.05 1.99 1.98 1.94 1.99 1.83 2.02 2.22 2.30 2.30 2.35 2.13 2.07 2.06 2.16 2.15 2.03 1.71 1.50 1.45 1.43 1.46 1.53 1.56 1.74 2.02 2.09 1.85 2.04 2.56 3.07 3.13 2.90 2.78 2.75
2.49 2.37 2.19 1.98 1.94 2.08 2.35 2.49 2.39 2.40 2.35 2.45 2.55 2.29 2.30 2.33 2.42 2.73 2.72 2.89 2.55 2.51 2.61 2.58 2.36 2.22 2.02 1.82 1.73 1.68 1.73 1.72 1.79 1.96 1.94 1.89 2.04 2.38 2.88 3.16 3.18 3.16 3.11
3.08 2.77 2.52 2.35 2.20 2.21 2.34 2.62 2.69 2.55 2.66 2.78 2.88 2.70 2.67 2.73 2.85 3.19 3.30 3.30 3.07 3.11 3.29 3.34 3.12 2.85 2.58 2.47 2.23 2.15 2.11 2.12 2.24 2.24 2.18 2.08 1.96 2.03 2.52 3.02 3.33 3.51 3.49
3.26 3.15 2.92 2.79 2.75 2.58 2.56 2.83 2.94 2.85 2.82 2.89 3.08 3.12 3.03 3.10 3.40 3.53 3.83 3.78 3.56 3.57 3.62 3.59 3.80 3.74 3.21 2.85 2.69 2.63 2.59 2.51 2.65 2.74 2.77 2.57 2.23 2.13 2.29 2.65 2.97 3.18 3.30
3.44 3.21 3.13 2.81 2.78 3.00 3.03 3.32 3.26 3.32 3.47 3.40 3.46 3.66 3.63 3.65 3.75 3.82 3.84 3.91 3.82 3.81 4.10 4.23 4.17 4.06 3.81 3.42 3.23 3.00 2.84 2.90 2.74 2.74 2.81 2.68 2.60 2.25 2.10 2.13 2.33 2.55 2.92
2.93 3.00 3.12 3.05 3.01 3.08 3.28 3.64 3.77 3.95 4.15 4.33 4.39 4.60 4.52 4.31 4.23 4.30 4.27 4.39 4.24 4.29 4.27 4.14 4.52 4.44 4.29 3.88 3.39 3.17 2.87 2.85 2.77 2.47 2.48 2.51 2.48 2.34 2.22 2.03 2.13 2.34 2.67
2.88 3.01 3.17 3.35 3.56 3.52 3.56 3.78 4.22 4.43 4.58 4.95 5.01 5.04 5.13 5.13 4.97 4.97 4.93 4.92 4.78 4.65 4.53 4.50 4.58 4.39 4.25 3.96 3.43 3.18 2.85 2.50 2.45 2.44 2.19 2.29 2.25 2.05 2.13 2.15 2.21 2.09 2.35
3.02 3.19 3.16 3.39 3.79 4.03 4.39 4.37 4.57 5.04 5.37 5.48 5.58 5.57 5.50 5.43 5.43 5.27 5.09 5.19 5.04 4.80 4.56 4.50 4.48 4.40 4.08 4.00 4.00 3.56 2.91 2.47 2.27 2.10 2.10 2.15 1.98 1.96 2.23 2.24 2.18 2.08 1.99
3.04 3.28 3.39 3.54 4.04 4.54 5.09 5.61 5.99 6.37 6.38 6.45 6.37 6.27 5.96 5.77 5.68 5.50 5.50 5.32 5.09 4.96 4.70 4.50 4.46 4.38 4.05 4.03 4.06 4.00 3.26 2.72 2.13 1.68 1.78 1.84 1.81 1.87 1.97 1.91 1.89 1.95 1.96
3.00 3.26 3.41 3.77 4.43 5.28 5.84 6.32 6.87 7.19 6.89 6.60 6.31 6.22 6.12 6.03 5.94 5.81 5.78 5.49 5.25 4.99 4.64 4.38 4.26 4.18 4.04 4.03 3.94 4.07 3.52 2.85 2.33 1.88 1.65 1.57 1.63 1.78 1.77 1.82 1.77 1.78 1.85
3.00 3.15 3.37 4.03 4.75 5.41 6.00 6.63 7.22 7.50 7.53 7.29 6.73 6.24 5.82 5.54 5.34 5.23 5.18 5.02 4.82 4.53 4.29 4.00 3.92 3.88 4.02 3.86 3.81 3.62 3.35 2.99 2.75 2.36 1.97 1.71 1.65 1.66 1.67 1.68 1.69 1.74 1.80
2.67 3.16 3.52 4.13 4.83 5.48 6.23 7.00 7.46 7.69 7.66 7.28 6.50 5.71 5.16 4.86 4.59 4.37 4.29 4.20 4.05 3.86 3.68 3.60 3.63 3.58 3.54 3.40 3.29 3.28 3.30 3.24 2.91 2.58 2.24 1.96 1.85 1.72 1.68 1.71 1.83 1.85 1.83
2.57 2.99 3.49 3.82 4.43 5.12 5.73 6.33 6.56 6.76 6.69 6.26 5.84 5.34 4.94 4.44 3.99 3.63 3.48 3.40 3.25 3.12 3.13 3.15 3.21 3.18 3.20 3.18 3.09 2.96 2.93 2.92 2.73 2.65 2.38 2.13 2.10 1.92 1.80 1.73 1.70 1.77 1.80

GEFSSE_prec_meanprecacc_282.txt.gz
Total_Precipitation_Accumulation
0.35 0.31 0.32 0.26 0.25 0.24 0.27 0.31 0.39 0.46 0.42 0.41 0.41 0.44 0.41 0.35 0.34 0.35 0.37 0.42 0.51 0.60 0.69 0.79 0.96 1.05 1.09 1.16 1.20 1.37 1.59 1.60 1.48 1.41 1.38 1.41 1.50 1.49 1.45 1.35 1.41 1.39 1.22
0.30 0.28 0.29 0.26 0.23 0.24 0.27 0.31 0.40 0.47 0.44 0.45 0.44 0.44 0.42 0.41 0.36 0.35 0.38 0.42 0.50 0.62 0.64 0.69 0.77 0.89 0.90 0.95 1.04 1.33 1.58 1.45 1.52 1.77 1.88 1.74 1.72 1.61 1.59 1.49 1.62 1.88 1.38
0.26 0.30 0.26 0.32 0.28 0.24 0.26 0.30 0.38 0.49 0.48 0.51 0.50 0.46 0.44 0.45 0.41 0.41 0.43 0.47 0.57 0.71 0.73 0.74 0.83 0.94 0.96 0.96 1.03 1.23 1.50 1.58 1.69 2.05 2.46 2.09 1.97 1.87 1.73 1.59 1.49 1.51 1.36
0.26 0.27 0.24 0.28 0.31 0.27 0.26 0.30 0.40 0.52 0.53 0.58 0.54 0.49 0.48 0.47 0.47 0.47 0.50 0.53 0.64 0.76 0.82 0.86 0.88 0.90 0.89 0.90 1.04 1.20 1.40 1.62 1.91 2.26 2.64 2.46 2.31 2.33 2.08 1.79 1.57 1.45 1.36
0.33 0.29 0.27 0.27 0.30 0.30 0.30 0.31 0.43 0.54 0.56 0.64 0.60 0.59 0.59 0.57 0.52 0.50 0.53 0.56 0.63 0.76 0.78 0.78 0.78 0.77 0.82 0.85 0.99 1.15 1.43 1.76 2.04 2.31 2.84 3.13 3.15 2.76 2.13 1.72 1.63 1.59 1.48
0.42 0.35 0.27 0.30 0.31 0.36 0.38 0.39 0.51 0.54 0.62 0.70 0.69 0.71 0.71 0.70 0.64 0.59 0.63 0.66 0.66 0.73 0.76 0.78 0.81 0.81 0.84 0.89 0.97 1.11 1.32 1.73 1.95 2.15 2.89 3.13 2.84 2.63 2.18 1.85 1.72 1.57 1.40
0.50 0.42 0.31 0.34 0.40 0.46 0.51 0.53 0.66 0.64 0.70 0.81 0.86 0.84 0.79 0.78 0.73 0.69 0.73 0.76 0.75 0.73 0.75 0.80 0.86 0.85 0.85 0.93 0.98 1.05 1.17 1.53 1.73 2.49 2.75 2.75 2.76 2.65 2.39 2.10 1.92 1.67 1.44
0.55 0.46 0.40 0.40 0.53 0.66 0.69 0.67 0.78 0.74 0.80 0.90 0.98 0.96 0.87 0.78 0.72 0.71 0.75 0.77 0.82 0.85 0.81 0.77 0.77 0.78 0.84 0.95 0.98 1.05 1.21 1.29 1.45 2.03 2.39 2.42 2.32 2.38 2.52 2.21 1.95 1.79 1.62
0.68 0.55 0.49 0.48 0.65 0.88 0.92 0.83 0.84 0.81 0.85 0.96 1.12 1.13 0.98 0.85 0.77 0.76 0.80 0.82 0.88 0.88 0.79 0.72 0.73 0.76 0.80 0.86 0.97 1.00 1.15 1.36 1.51 1.89 2.00 2.18 1.96 2.15 2.52 2.39 1.96 1.79 1.73
1.02 0.82 0.71 0.71 0.80 0.90 0.92 0.94 0.90 0.88 0.97 1.06 1.17 1.18 1.08 0.97 0.88 0.88 0.84 0.88 0.89 0.94 0.90 0.86 0.85 0.85 0.84 0.86 0.95 1.07 1.18 1.32 1.43 1.73 2.36 2.24 1.91 2.38 2.66 2.48 2.14 1.96 1.87
1.18 1.26 1.18 1.07 1.05 1.04 1.00 1.01 1.06 1.05 1.08 1.11 1.18 1.15 1.08 1.07 1.17 1.12 0.97 1.01 1.04 1.14 1.18 1.11 1.07 1.05 0.99 1.01 1.09 1.21 1.29 1.12 1.42 2.03 2.55 2.34 2.17 2.57 2.73 2.53 2.31 2.18 2.04
1.42 1.55 1.58 1.56 1.50 1.42 1.31 1.43 1.44 1.27 1.22 1.19 1.32 1.21 1.17 1.43 1.54 1.37 1.45 1.45 1.45 1.43 1.44 1.40 1.31 1.23 1.16 1.09 1.21 1.33 1.16 1.21 1.69 2.27 2.30 1.94 2.26 2.76 2.90 2.71 2.49 2.43 2.34
1.82 1.63 1.58 1.84 1.94 1.98 2.03 1.85 1.78 1.75 1.73 1.66 1.76 1.66 1.69 1.90 1.81 1.82 1.89 1.77 1.66 1.66 1.66 1.77 1.60 1.26 1.18 1.32 1.43 1.39 1.36 1.43 1.70 2.13 2.22 2.03 2.32 2.85 3.07 2.94 2.69 2.62 2.66
2.17 2.00 1.79 1.84 1.92 2.04 2.20 2.17 2.06 2.00 1.99 1.94 1.99 1.84 2.04 2.24 2.32 2.31 2.37 2.15 2.08 2.08 2.18 2.18 2.05 1.74 1.53 1.50 1.47 1.51 1.59 1.63 1.80 2.07 2.12 1.89 2.09 2.62 3.15 3.20 2.95 2.83 2.80
2.53 2.41 2.23 2.01 1.96 2.11 2.37 2.51 2.40 2.40 2.36 2.46 2.55 2.31 2.34 2.39 2.44 2.74 2.74 2.90 2.56 2.53 2.63 2.60 2.41 2.28 2.06 1.86 1.78 1.72 1.78 1.80 1.85 2.02 1.98 1.93 2.08 2.43 2.96 3.25 3.26 3.21 3.16
3.14 2.81 2.55 2.39 2.24 2.23 2.36 2.64 2.70 2.56 2.67 2.79 2.89 2.73 2.73 2.78 2.88 3.21 3.30 3.31 3.09 3.13 3.31 3.35 3.14 2.90 2.63 2.53 2.29 2.23 2.19 2.20 2.32 2.31 2.24 2.13 2.00 2.08 2.59 3.09 3.45 3.62 3.56
3.29 3.18 2.94 2.81 2.78 2.62 2.59 2.85 2.94 2.85 2.83 2.90 3.10 3.15 3.07 3.15 3.44 3.56 3.85 3.79 3.57 3.59 3.64 3.61 3.81 3.76 3.23 2.89 2.76 2.72 2.65 2.56 2.72 2.79 2.83 2.61 2.28 2.18 2.34 2.70 3.06 3.28 3.38
3.45 3.23 3.14 2.82 2.80 3.04 3.09 3.36 3.29 3.34 3.49 3.43 3.50 3.70 3.67 3.69 3.78 3.83 3.86 3.92 3.84 3.83 4.13 4.25 4.20 4.10 3.85 3.45 3.27 3.05 2.90 2.95 2.78 2.79 2.87 2.73 2.63 2.28 2.13 2.17 2.40 2.63 2.98
2.94 3.01 3.13 3.07 3.04 3.12 3.34 3.72 3.82 3.98 4.18 4.37 4.43 4.63 4.55 4.35 4.25 4.31 4.29 4.41 4.26 4.32 4.30 4.18 4.56 4.48 4.35 3.92 3.44 3.24 2.97 2.95 2.84 2.55 2.56 2.56 2.51 2.36 2.24 2.05 2.17 2.39 2.71
2.88 3.02 3.18 3.37 3.58 3.56 3.62 3.88 4.31 4.49 4.61 4.99 5.07 5.10 5.17 5.17 5.01 5.01 4.96 4.96 4.83 4.69 4.57 4.54 4.61 4.42 4.29 4.00 3.49 3.24 2.92 2.57 2.49 2.48 2.24 2.34 2.29 2.08 2.16 2.17 2.23 2.11 2.38
3.03 3.20 3.17 3.40 3.80 4.07 4.46 4.46 4.68 5.12 5.41 5.51 5.62 5.63 5.56 5.49 5.49 5.34 5.17 5.26 5.10 4.86 4.62 4.55 4.53 4.44 4.12 4.05 4.07 3.62 2.96 2.53 2.32 2.16 2.17 2.22 2.04 2.03 2.29 2.28 2.20 2.10 2.00
3.06 3.30 3.41 3.55 4.05 4.55 5.11 5.64 6.03 6.41 6.42 6.50 6.41 6.30 6.00 5.83 5.75 5.58 5.59 5.42 5.19 5.05 4.78 4.56 4.52 4.44 4.11 4.12 4.14 4.07 3.31 2.77 2.18 1.72 1.83 1.88 1.85 1.94 2.03 1.96 1.92 1.97 1.98
3.04 3.28 3.43 3.78 4.45 5.31 5.89 6.36 6.90 7.22 6.91 6.63 6.34 6.25 6.15 6.08 5.99 5.87 5.85 5.58 5.35 5.08 4.72 4.43 4.30 4.22 4.09 4.11 4.01 4.11 3.55 2.87 2.35 1.91 1.68 1.60 1.67 1.81 1.80 1.86 1.81 1.81 1.88
3.02 3.19 3.43 4.07 4.78 5.45 6.07 6.70 7.27 7.54 7.56 7.31 6.75 6.27 5.84 5.56 5.37 5.28 5.25 5.10 4.91 4.63 4.37 4.06 3.96 3.91 4.04 3.90 3.86 3.65 3.38 3.01 2.77 2.38 2.00 1.75 1.71 1.72 1.72 1.72 1.73 1.76 1.82
2.69 3.19 3.56 4.17 4.87 5.52 6.29 7.06 7.50 7.73 7.70 7.32 6.53 5.75 5.19 4.90 4.63 4.42 4.36 4.26 4.11 3.92 3.75 3.66 3.68 3.62 3.56 3.42 3.32 3.32 3.33 3.27 2.93 2.60 2.26 1.99 1.90 1.78 1.73 1.74 1.86 1.89 1.87
2.59 3.01 3.52 3.86 4.47 5.17 5.80 6.43 6.66 6.81 6.73 6.30 5.89 5.40 5.00 4.51 4.06 3.72 3.57 3.46 3.29 3.16 3.16 3.18 3.24 3.22 3.23 3.21 3.12 2.99 2.96 2.94 2.76 2.67 2.40 2.15 2.12 1.95 1.84 1.77 1.73 1.81 1.86

GEFSSE_prec_meanprecacc_288.txt.gz
Total_Precipitation_Accumulation
0.35 0.31 0.33 0.28 0.26 0.25 0.28 0.32 0.40 0.47 0.44 0.42 0.42 0.45 0.44 0.38 0.37 0.37 0.39 0.45 0.54 0.63 0.72 0.83 1.03 1.19 1.29 1.37 1.39 1.53 1.71 1.73 1.62 1.55 1.53 1.55 1.63 1.58 1.52 1.42 1.46 1.43 1.28
0.30 0.28 0.30 0.27 0.24 0.25 0.28 0.31 0.40 0.49 0.45 0.47 0.46 0.46 0.45 0.44 0.39 0.38 0.41 0.45 0.54 0.65 0.68 0.73 0.82 0.94 0.98 1.05 1.13 1.45 1.70 1.58 1.67 1.92 2.04 1.89 1.84 1.70 1.67 1.56 1.67 1.91 1.44
0.26 0.30 0.27 0.33 0.29 0.25 0.27 0.31 0.39 0.51 0.51 0.53 0.51 0.48 0.46 0.47 0.44 0.44 0.47 0.51 0.61 0.75 0.77 0.79 0.88 1.00 1.03 1.05 1.14 1.35 1.63 1.69 1.81 2.19 2.59 2.20 2.05 1.96 1.79 1.64 1.53 1.55 1.41
0.26 0.27 0.24 0.29 0.32 0.27 0.27 0.31 0.42 0.55 0.56 0.61 0.55 0.51 0.51 0.49 0.49 0.50 0.54 0.57 0.69 0.81 0.85 0.89 0.92 0.94 0.96 0.98 1.13 1.32 1.53 1.74 2.02 2.34 2.70 2.50 2.35 2.40 2.15 1.85 1.62 1.49 1.39
0.33 0.29 0.27 0.27 0.30 0.30 0.31 0.32 0.45 0.57 0.59 0.67 0.63 0.61 0.62 0.60 0.54 0.53 0.56 0.60 0.68 0.82 0.84 0.83 0.82 0.80 0.87 0.93 1.06 1.26 1.58 1.90 2.16 2.38 2.88 3.16 3.19 2.83 2.19 1.78 1.67 1.63 1.52
0.42 0.35 0.28 0.31 0.31 0.36 0.39 0.40 0.53 0.57 0.65 0.74 0.73 0.73 0.74 0.73 0.67 0.63 0.67 0.70 0.70 0.78 0.81 0.81 0.84 0.85 0.88 0.94 1.04 1.19 1.44 1.88 2.09 2.23 2.93 3.16 2.88 2.70 2.24 1.91 1.77 1.62 1.47
0.50 0.42 0.33 0.36 0.42 0.47 0.51 0.53 0.67 0.66 0.74 0.85 0.90 0.87 0.82 0.80 0.76 0.73 0.77 0.80 0.78 0.77 0.79 0.83 0.89 0.88 0.87 0.96 1.04 1.12 1.23 1.62 1.82 2.57 2.80 2.79 2.80 2.73 2.47 2.20 2.00 1.73 1.49
0.55 0.47 0.40 0.41 0.55 0.67 0.70 0.69 0.79 0.76 0.83 0.94 1.02 0.99 0.89 0.80 0.74 0.74 0.78 0.81 0.85 0.88 0.83 0.80 0.80 0.81 0.87 0.99 1.02 1.11 1.26 1.34 1.49 2.10 2.44 2.46 2.37 2.46 2.61 2.30 2.03 1.85 1.68
0.69 0.56 0.50 0.49 0.67 0.89 0.93 0.84 0.84 0.82 0.86 0.98 1.14 1.15 1.00 0.87 0.79 0.78 0.82 0.85 0.91 0.91 0.81 0.74 0.75 0.79 0.84 0.89 1.00 1.04 1.20 1.41 1.55 1.93 2.05 2.23 2.02 2.22 2.61 2.49 2.04 1.86 1.80
1.02 0.83 0.71 0.72 0.81 0.91 0.92 0.95 0.91 0.89 0.97 1.07 1.18 1.20 1.10 0.99 0.90 0.90 0.86 0.91 0.91 0.96 0.92 0.88 0.86 0.87 0.87 0.89 0.98 1.10 1.22 1.38 1.49 1.77 2.39 2.28 1.96 2.44 2.74 2.59 2.24 2.05 1.95
1.18 1.26 1.19 1.08 1.07 1.05 1.00 1.02 1.08 1.06 1.09 1.13 1.19 1.17 1.10 1.08 1.18 1.14 0.99 1.03 1.06 1.16 1.21 1.14 1.09 1.07 1.03 1.04 1.12 1.24 1.33 1.16 1.46 2.07 2.59 2.38 2.22 2.64 2.82 2.64 2.41 2.28 2.14
1.42 1.55 1.59 1.57 1.52 1.44 1.32 1.44 1.46 1.28 1.24 1.21 1.33 1.23 1.19 1.44 1.54 1.38 1.47 1.48 1.48 1.47 1.49 1.44 1.34 1.26 1.18 1.11 1.23 1.35 1.19 1.24 1.72 2.31 2.35 1.98 2.30 2.82 2.99 2.80 2.59 2.53 2.44
1.83 1.64 1.58 1.85 1.95 2.00 2.06 1.89 1.82 1.77 1.75 1.67 1.77 1.68 1.70 1.90 1.82 1.83 1.90 1.78 1.68 1.68 1.69 1.80 1.62 1.28 1.19 1.33 1.44 1.41 1.38 1.46 1.74 2.17 2.26 2.07 2.35 2.91 3.15 3.03 2.78 2.72 2.76
2.18 2.01 1.79 1.85 1.93 2.08 2.26 2.21 2.09 2.02 2.00 1.95 2.00 1.85 2.05 2.25 2.32 2.32 2.37 2.16 2.10 2.09 2.19 2.20 2.07 1.75 1.53 1.50 1.48 1.52 1.61 1.66 1.84 2.12 2.17 1.93 2.13 2.68 3.22 3.28 3.04 2.92 2.90
2.55 2.43 2.26 2.05 2.00 2.14 2.42 2.55 2.43 2.42 2.36 2.46 2.56 2.32 2.35 2.40 2.45 2.74 2.74 2.91 2.57 2.54 2.65 2.61 2.41 2.29 2.07 1.87 1.79 1.73 1.80 1.82 1.88 2.06 2.03 1.98 2.14 2.50 3.04 3.34 3.34 3.30 3.25
3.16 2.83 2.57 2.42 2.27 2.27 2.41 2.70 2.74 2.57 2.68 2.80 2.89 2.74 2.74 2.79 2.88 3.21 3.31 3.31 3.10 3.15 3.33 3.36 3.15 2.91 2.63 2.53 2.31 2.25 2.20 2.21 2.34 2.34 2.27 2.16 2.05 2.14 2.68 3.19 3.53 3.69 3.63
3.30 3.19 2.96 2.82 2.81 2.64 2.61 2.89 2.98 2.88 2.85 2.92 3.10 3.16 3.09 3.16 3.45 3.56 3.86 3.80 3.59 3.61 3.66 3.62 3.82 3.77 3.24 2.90 2.78 2.74 2.67 2.57 2.73 2.81 2.85 2.64 2.31 2.22 2.40 2.79 3.15 3.36 3.45
3.46 3.24 3.16 2.84 2.81 3.06 3.11 3.39 3.34 3.40 3.54 3.49 3.53 3.72 3.68 3.70 3.80 3.84 3.87 3.93 3.86 3.85 4.15 4.27 4.23 4.12 3.87 3.47 3.30 3.09 2.94 2.97 2.80 2.82 2.91 2.77 2.66 2.31 2.17 2.26 2.51 2.73 3.06
2.95 3.02 3.14 3.08 3.06 3.13 3.35 3.76 3.89 4.10 4.29 4.44 4.48 4.67 4.60 4.39 4.27 4.33 4.30 4.42 4.28 4.34 4.32 4.20 4.59 4.51 4.38 3.96 3.48 3.28 3.01 2.98 2.86 2.57 2.59 2.60 2.56 2.40 2.27 2.14 2.33 2.52 2.79
2.89 3.03 3.19 3.38 3.60 3.58 3.65 3.92 4.38 4.61 4.77 5.11 5.15 5.15 5.22 5.22 5.05 5.03 4.98 4.98 4.84 4.71 4.59 4.57 4.66 4.47 4.34 4.05 3.53 3.27 2.94 2.60 2.51 2.51 2.28 2.38 2.34 2.14 2.20 2.21 2.30 2.19 2.48
3.04 3.21 3.18 3.41 3.82 4.08 4.48 4.48 4.72 5.21 5.55 5.66 5.72 5.69 5.61 5.54 5.54 5.39 5.22 5.29 5.12 4.88 4.65 4.59 4.58 4.49 4.17 4.10 4.12 3.67 2.99 2.55 2.34 2.18 2.19 2.25 2.08 2.06 2.33 2.32 2.22 2.12 2.05
3.06 3.30 3.42 3.57 4.06 4.56 5.14 5.68 6.07 6.49 6.51 6.61 6.53 6.39 6.06 5.90 5.83 5.64 5.65 5.47 5.24 5.10 4.83 4.62 4.59 4.50 4.18 4.20 4.21 4.15 3.37 2.80 2.21 1.76 1.86 1.90 1.88 1.96 2.05 2.00 1.95 1.99 1.99
3.05 3.29 3.45 3.80 4.46 5.33 5.91 6.41 6.96 7.29 6.98 6.69 6.40 6.31 6.20 6.13 6.06 5.94 5.90 5.62 5.40 5.13 4.78 4.52 4.40 4.33 4.21 4.21 4.10 4.19 3.60 2.90 2.38 1.95 1.70 1.62 1.68 1.83 1.82 1.88 1.84 1.84 1.90
3.04 3.21 3.45 4.09 4.80 5.48 6.10 6.73 7.32 7.58 7.58 7.34 6.77 6.29 5.87 5.60 5.41 5.34 5.33 5.18 4.98 4.70 4.45 4.13 4.04 3.99 4.13 3.98 3.94 3.73 3.43 3.05 2.81 2.42 2.02 1.77 1.73 1.73 1.73 1.74 1.75 1.80 1.86
2.72 3.22 3.58 4.20 4.90 5.55 6.34 7.10 7.54 7.75 7.71 7.34 6.55 5.76 5.21 4.92 4.67 4.48 4.44 4.34 4.18 3.98 3.81 3.73 3.76 3.70 3.65 3.51 3.40 3.40 3.42 3.34 2.99 2.63 2.29 2.01 1.92 1.80 1.76 1.77 1.88 1.92 1.90
2.64 3.05 3.56 3.90 4.52 5.22 5.86 6.49 6.71 6.86 6.78 6.34 5.91 5.41 5.01 4.52 4.09 3.76 3.64 3.53 3.35 3.21 3.20 3.21 3.29 3.26 3.28 3.26 3.17 3.05 3.02 3.01 2.81 2.71 2.43 2.17 2.14 1.97 1.87 1.80 1.76 1.84 1.88

GEFSSE_prec_meanprecacc_294.txt.gz
Total_Precipitation_Accumulation
0.35 0.31 0.33 0.29 0.26 0.25 0.29 0.34 0.43 0.50 0.47 0.45 0.45 0.48 0.46 0.42 0.41 0.42 0.43 0.49 0.60 0.70 0.80 0.93 1.20 1.39 1.49 1.55 1.58 1.76 1.92 1.89 1.77 1.72 1.74 1.74 1.79 1.74 1.67 1.56 1.58 1.53 1.36
0.30 0.29 0.30 0.28 0.25 0.25 0.29 0.34 0.43 0.51 0.48 0.49 0.49 0.48 0.47 0.47 0.43 0.42 0.46 0.51 0.61 0.73 0.75 0.81 0.91 1.06 1.14 1.23 1.32 1.64 1.88 1.74 1.83 2.12 2.26 2.06 1.97 1.82 1.80 1.67 1.77 2.00 1.51
0.26 0.30 0.27 0.34 0.30 0.26 0.28 0.33 0.42 0.53 0.53 0.56 0.54 0.50 0.49 0.50 0.48 0.48 0.52 0.58 0.72 0.85 0.85 0.86 0.96 1.08 1.12 1.18 1.28 1.52 1.81 1.87 2.00 2.40 2.80 2.37 2.18 2.08 1.91 1.74 1.61 1.63 1.47
0.26 0.27 0.24 0.30 0.34 0.29 0.29 0.34 0.46 0.57 0.58 0.64 0.57 0.54 0.53 0.53 0.53 0.55 0.57 0.61 0.76 0.90 0.95 0.98 1.00 1.02 1.04 1.09 1.26 1.48 1.74 1.93 2.19 2.52 2.87 2.66 2.47 2.53 2.26 1.96 1.72 1.58 1.46
0.33 0.29 0.27 0.28 0.31 0.31 0.32 0.36 0.50 0.60 0.63 0.70 0.64 0.63 0.64 0.62 0.57 0.57 0.62 0.65 0.72 0.89 0.93 0.92 0.90 0.88 0.96 1.03 1.18 1.38 1.72 2.03 2.28 2.51 3.02 3.28 3.29 2.93 2.29 1.90 1.77 1.71 1.59
0.42 0.35 0.28 0.32 0.33 0.38 0.41 0.44 0.58 0.63 0.71 0.77 0.74 0.74 0.76 0.75 0.70 0.66 0.72 0.78 0.78 0.85 0.89 0.89 0.92 0.93 0.98 1.06 1.17 1.32 1.55 1.98 2.19 2.33 3.04 3.26 2.96 2.78 2.33 2.01 1.86 1.69 1.52
0.50 0.42 0.33 0.36 0.43 0.48 0.54 0.56 0.71 0.76 0.82 0.88 0.91 0.88 0.84 0.83 0.80 0.76 0.81 0.87 0.89 0.86 0.85 0.89 0.96 0.95 0.95 1.08 1.15 1.22 1.32 1.70 1.91 2.66 2.88 2.86 2.89 2.82 2.58 2.30 2.09 1.82 1.56
0.56 0.47 0.42 0.42 0.56 0.69 0.72 0.71 0.82 0.83 0.92 0.98 1.04 1.01 0.92 0.83 0.76 0.76 0.82 0.86 0.91 0.95 0.89 0.85 0.86 0.87 0.94 1.07 1.13 1.20 1.33 1.39 1.55 2.19 2.52 2.52 2.45 2.56 2.71 2.39 2.11 1.94 1.76
0.69 0.57 0.51 0.50 0.68 0.91 0.95 0.87 0.87 0.85 0.92 1.02 1.17 1.18 1.02 0.90 0.81 0.80 0.84 0.88 0.95 0.96 0.86 0.78 0.79 0.83 0.89 0.96 1.09 1.13 1.27 1.47 1.60 1.99 2.10 2.30 2.09 2.31 2.70 2.57 2.11 1.94 1.89
1.03 0.84 0.72 0.73 0.83 0.94 0.95 0.99 0.95 0.91 1.00 1.11 1.22 1.23 1.13 1.02 0.93 0.92 0.89 0.94 0.95 1.01 0.97 0.92 0.90 0.91 0.91 0.93 1.03 1.18 1.29 1.44 1.54 1.81 2.43 2.32 2.02 2.51 2.83 2.68 2.34 2.14 2.05
1.18 1.27 1.19 1.10 1.08 1.07 1.04 1.05 1.13 1.10 1.13 1.16 1.23 1.21 1.14 1.11 1.21 1.17 1.01 1.06 1.10 1.21 1.26 1.19 1.13 1.10 1.06 1.07 1.16 1.29 1.39 1.22 1.51 2.11 2.62 2.41 2.28 2.70 2.90 2.75 2.55 2.42 2.27
1.43 1.56 1.60 1.58 1.54 1.47 1.37 1.51 1.54 1.35 1.29 1.25 1.38 1.27 1.22 1.48 1.58 1.40 1.49 1.50 1.51 1.51 1.53 1.49 1.38 1.29 1.21 1.13 1.25 1.39 1.24 1.29 1.78 2.35 2.39 2.03 2.38 2.88 3.06 2.90 2.73 2.67 2.58
1.84 1.65 1.60 1.87 1.98 2.03 2.11 1.95 1.92 1.86 1.80 1.72 1.81 1.72 1.74 1.94 1.85 1.85 1.92 1.80 1.71 1.71 1.72 1.82 1.64 1.31 1.21 1.35 1.47 1.44 1.42 1.51 1.79 2.22 2.31 2.12 2.42 2.99 3.25 3.14 2.92 2.85 2.88
2.20 2.02 1.81 1.88 1.96 2.12 2.30 2.27 2.21 2.12 2.06 2.00 2.05 1.88 2.08 2.28 2.36 2.34 2.39 2.17 2.11 2.10 2.22 2.22 2.08 1.76 1.55 1.52 1.50 1.54 1.63 1.70 1.89 2.17 2.22 1.98 2.18 2.74 3.30 3.39 3.18 3.02 3.00
2.56 2.44 2.27 2.07 2.02 2.18 2.47 2.62 2.59 2.58 2.44 2.51 2.61 2.36 2.38 2.42 2.47 2.77 2.76 2.92 2.58 2.56 2.67 2.63 2.42 2.30 2.08 1.88 1.80 1.75 1.81 1.84 1.91 2.09 2.07 2.03 2.18 2.56 3.11 3.43 3.46 3.40 3.35
3.17 2.84 2.58 2.44 2.29 2.29 2.44 2.77 2.88 2.69 2.73 2.83 2.92 2.77 2.77 2.81 2.90 3.23 3.33 3.33 3.11 3.17 3.35 3.37 3.16 2.92 2.64 2.54 2.32 2.26 2.21 2.23 2.37 2.37 2.31 2.22 2.11 2.20 2.75 3.28 3.63 3.80 3.73
3.31 3.20 2.97 2.84 2.82 2.65 2.62 2.92 3.02 2.92 2.89 2.96 3.14 3.19 3.11 3.18 3.47 3.58 3.88 3.82 3.61 3.63 3.67 3.63 3.84 3.79 3.25 2.92 2.81 2.78 2.70 2.59 2.76 2.84 2.89 2.70 2.37 2.28 2.47 2.87 3.23 3.45 3.53
3.47 3.25 3.17 2.85 2.82 3.06 3.12 3.40 3.35 3.41 3.58 3.54 3.58 3.76 3.71 3.72 3.82 3.87 3.89 3.95 3.87 3.87 4.17 4.29 4.25 4.14 3.89 3.50 3.34 3.13 2.98 3.01 2.83 2.84 2.93 2.79 2.70 2.36 2.24 2.33 2.60 2.81 3.13
2.95 3.03 3.14 3.08 3.06 3.13 3.36 3.77 3.91 4.13 4.31 4.48 4.54 4.74 4.64 4.42 4.30 4.36 4.32 4.45 4.30 4.36 4.34 4.22 4.61 4.55 4.42 4.00 3.52 3.32 3.04 3.01 2.88 2.58 2.61 2.62 2.59 2.44 2.33 2.23 2.45 2.63 2.90
2.90 3.04 3.20 3.38 3.61 3.58 3.66 3.94 4.41 4.65 4.80 5.15 5.20 5.20 5.27 5.26 5.09 5.08 5.03 5.03 4.88 4.74 4.62 4.61 4.71 4.51 4.37 4.08 3.56 3.29 2.97 2.63 2.54 2.53 2.29 2.40 2.36 2.16 2.24 2.27 2.39 2.29 2.62
3.04 3.21 3.19 3.42 3.83 4.10 4.49 4.51 4.75 5.25 5.60 5.70 5.76 5.72 5.64 5.59 5.59 5.43 5.27 5.35 5.20 4.94 4.70 4.64 4.63 4.53 4.20 4.14 4.15 3.70 3.02 2.59 2.37 2.20 2.21 2.28 2.11 2.09 2.36 2.35 2.27 2.19 2.13
3.07 3.31 3.43 3.57 4.07 4.57 5.15 5.70 6.10 6.53 6.55 6.65 6.57 6.43 6.10 5.96 5.88 5.70 5.70 5.52 5.32 5.16 4.89 4.67 4.63 4.54 4.21 4.23 4.25 4.18 3.40 2.84 2.24 1.78 1.88 1.93 1.91 2.00 2.08 2.03 2.00 2.05 2.05
3.07 3.30 3.46 3.82 4.49 5.35 5.94 6.44 6.99 7.33 7.01 6.72 6.45 6.34 6.24 6.17 6.09 5.99 5.95 5.67 5.45 5.19 4.84 4.58 4.46 4.38 4.25 4.25 4.13 4.24 3.64 2.94 2.42 1.97 1.72 1.64 1.70 1.85 1.85 1.92 1.88 1.88 1.95
3.06 3.23 3.47 4.13 4.84 5.51 6.13 6.76 7.35 7.62 7.61 7.36 6.80 6.32 5.91 5.65 5.45 5.38 5.38 5.24 5.05 4.75 4.50 4.19 4.09 4.04 4.17 4.02 3.98 3.77 3.48 3.11 2.88 2.47 2.04 1.79 1.75 1.76 1.76 1.77 1.79 1.84 1.90
2.76 3.25 3.61 4.24 4.94 5.60 6.38 7.15 7.58 7.78 7.75 7.37 6.58 5.79 5.24 4.95 4.70 4.51 4.49 4.42 4.25 4.04 3.85 3.78 3.81 3.74 3.68 3.54 3.44 3.45 3.47 3.41 3.06 2.71 2.34 2.05 1.95 1.83 1.79 1.81 1.93 1.97 1.94
2.68 3.08 3.59 3.94 4.56 5.28 5.92 6.54 6.75 6.90 6.82 6.38 5.95 5.45 5.05 4.56 4.13 3.80 3.67 3.58 3.41 3.26 3.25 3.26 3.33 3.31 3.32 3.31 3.23 3.10 3.08 3.08 2.90 2.81 2.51 2.22 2.19 2.00 1.91 1.84 1.80 1.88 1.93

GEFSSE_prec_meanprecacc_300.txt.gz
Total_Precipitation_Accumulation
0.35 0.31 0.33 0.29 0.26 0.25 0.29 0.35 0.46 0.54 0.50 0.47 0.47 0.51 0.49 0.46 0.45 0.45 0.47 0.54 0.65 0.76 0.89 1.02 1.31 1.52 1.62 1.68 1.74 1.90 2.06 2.01 1.87 1.83 1.87 1.88 1.95 1.90 1.82 1.71 1.75 1.75 1.54
0.30 0.29 0.30 0.28 0.25 0.26 0.30 0.35 0.46 0.55 0.50 0.51 0.50 0.51 0.50 0.51 0.46 0.46 0.51 0.56 0.65 0.77 0.82 0.89 1.00 1.22 1.33 1.37 1.44 1.76 1.99 1.85 1.94 2.24 2.41 2.25 2.17 2.00 1.95 1.81 1.92 2.15 1.68
0.26 0.30 0.27 0.34 0.31 0.27 0.29 0.35 0.44 0.56 0.56 0.58 0.56 0.52 0.51 0.53 0.50 0.51 0.56 0.62 0.75 0.90 0.91 0.93 1.04 1.18 1.29 1.36 1.46 1.68 1.95 2.00 2.13 2.56 3.00 2.57 2.42 2.31 2.08 1.87 1.74 1.75 1.57
0.26 0.27 0.24 0.30 0.34 0.29 0.30 0.37 0.48 0.60 0.61 0.66 0.59 0.55 0.55 0.54 0.55 0.58 0.61 0.65 0.81 0.96 1.01 1.04 1.09 1.10 1.14 1.23 1.43 1.67 1.93 2.09 2.37 2.70 3.07 2.94 2.81 2.79 2.45 2.11 1.86 1.69 1.56
0.34 0.29 0.27 0.28 0.31 0.32 0.35 0.41 0.53 0.63 0.66 0.72 0.66 0.64 0.66 0.63 0.59 0.60 0.66 0.70 0.78 0.95 1.01 1.00 0.98 0.96 1.03 1.11 1.27 1.50 1.88 2.19 2.46 2.69 3.22 3.56 3.61 3.23 2.53 2.08 1.93 1.84 1.71
0.42 0.36 0.28 0.32 0.33 0.39 0.43 0.48 0.63 0.66 0.73 0.79 0.77 0.77 0.77 0.77 0.73 0.69 0.76 0.84 0.85 0.92 0.97 0.96 1.00 1.03 1.08 1.15 1.24 1.40 1.64 2.10 2.35 2.51 3.29 3.53 3.23 3.05 2.57 2.21 2.02 1.83 1.64
0.51 0.43 0.34 0.37 0.43 0.49 0.55 0.59 0.75 0.81 0.85 0.90 0.94 0.91 0.87 0.86 0.83 0.80 0.85 0.91 0.94 0.92 0.91 0.97 1.06 1.05 1.05 1.17 1.22 1.29 1.39 1.80 2.03 2.82 3.05 3.04 3.08 3.00 2.73 2.43 2.22 1.92 1.65
0.56 0.48 0.43 0.43 0.56 0.69 0.73 0.73 0.84 0.87 0.96 1.00 1.07 1.04 0.94 0.86 0.79 0.79 0.85 0.90 0.96 1.01 0.95 0.91 0.94 0.97 1.02 1.15 1.22 1.30 1.42 1.48 1.65 2.30 2.62 2.64 2.58 2.69 2.80 2.47 2.18 2.00 1.83
0.69 0.58 0.53 0.51 0.69 0.92 0.96 0.89 0.89 0.87 0.96 1.05 1.19 1.22 1.06 0.92 0.83 0.83 0.87 0.91 0.99 1.00 0.90 0.82 0.84 0.89 0.95 1.04 1.26 1.28 1.38 1.54 1.67 2.11 2.22 2.41 2.20 2.40 2.77 2.65 2.20 2.01 1.95
1.03 0.84 0.73 0.74 0.84 0.95 0.97 1.01 0.96 0.94 1.04 1.15 1.24 1.26 1.16 1.05 0.95 0.95 0.91 0.97 0.99 1.05 1.00 0.96 0.94 0.95 0.95 0.99 1.15 1.30 1.44 1.52 1.59 1.90 2.54 2.40 2.09 2.58 2.89 2.74 2.41 2.23 2.13
1.20 1.27 1.20 1.11 1.11 1.11 1.08 1.09 1.17 1.14 1.17 1.20 1.27 1.24 1.18 1.16 1.24 1.21 1.05 1.09 1.14 1.25 1.29 1.22 1.16 1.13 1.08 1.10 1.20 1.34 1.45 1.27 1.58 2.20 2.69 2.46 2.33 2.77 2.95 2.79 2.61 2.51 2.36
1.44 1.57 1.61 1.60 1.56 1.51 1.43 1.59 1.63 1.44 1.36 1.31 1.43 1.31 1.27 1.54 1.64 1.45 1.52 1.53 1.55 1.55 1.56 1.51 1.40 1.31 1.23 1.17 1.30 1.43 1.29 1.35 1.86 2.43 2.45 2.08 2.43 2.95 3.12 2.95 2.79 2.75 2.66
1.85 1.66 1.61 1.89 2.00 2.06 2.16 2.03 2.01 1.96 1.90 1.82 1.91 1.80 1.81 2.00 1.91 1.91 1.96 1.84 1.74 1.74 1.74 1.84 1.65 1.33 1.24 1.41 1.53 1.50 1.48 1.59 1.88 2.30 2.39 2.18 2.49 3.06 3.33 3.22 2.98 2.92 2.96
2.23 2.04 1.82 1.89 1.97 2.13 2.34 2.34 2.30 2.21 2.13 2.07 2.15 1.99 2.17 2.35 2.42 2.40 2.44 2.20 2.13 2.12 2.24 2.24 2.11 1.78 1.57 1.55 1.54 1.58 1.67 1.76 1.96 2.26 2.31 2.04 2.24 2.79 3.36 3.48 3.26 3.10 3.09
2.59 2.45 2.28 2.07 2.03 2.20 2.51 2.68 2.65 2.68 2.52 2.57 2.69 2.47 2.46 2.49 2.52 2.83 2.81 2.97 2.61 2.57 2.69 2.64 2.43 2.31 2.09 1.90 1.83 1.78 1.85 1.89 1.98 2.19 2.18 2.09 2.22 2.60 3.15 3.49 3.54 3.48 3.43
3.18 2.85 2.59 2.44 2.30 2.31 2.46 2.79 2.91 2.76 2.80 2.86 2.98 2.87 2.83 2.86 2.95 3.27 3.37 3.38 3.17 3.21 3.36 3.39 3.18 2.94 2.66 2.57 2.35 2.29 2.24 2.27 2.43 2.45 2.37 2.28 2.16 2.25 2.80 3.33 3.70 3.87 3.81
3.32 3.21 2.98 2.84 2.83 2.66 2.63 2.93 3.04 2.96 2.92 2.99 3.17 3.24 3.15 3.23 3.52 3.62 3.92 3.86 3.64 3.64 3.68 3.64 3.86 3.81 3.28 2.94 2.84 2.82 2.73 2.63 2.80 2.90 2.97 2.77 2.43 2.32 2.51 2.90 3.28 3.51 3.60
3.48 3.25 3.17 2.85 2.82 3.07 3.13 3.41 3.36 3.43 3.59 3.56 3.60 3.78 3.74 3.78 3.87 3.90 3.92 3.98 3.90 3.90 4.20 4.33 4.28 4.18 3.93 3.53 3.38 3.17 3.03 3.05 2.86 2.87 2.99 2.85 2.76 2.42 2.28 2.37 2.63 2.86 3.21
2.96 3.03 3.15 3.08 3.07 3.14 3.38 3.79 3.93 4.16 4.34 4.50 4.57 4.78 4.67 4.44 4.34 4.40 4.36 4.49 4.35 4.41 4.40 4.26 4.66 4.60 4.45 4.03 3.56 3.36 3.08 3.04 2.91 2.60 2.65 2.67 2.65 2.51 2.39 2.27 2.49 2.67 2.97
2.91 3.06 3.21 3.40 3.62 3.60 3.67 3.97 4.45 4.68 4.83 5.19 5.24 5.24 5.32 5.30 5.13 5.13 5.09 5.09 4.96 4.82 4.70 4.68 4.79 4.58 4.42 4.13 3.60 3.35 3.02 2.66 2.57 2.56 2.33 2.46 2.41 2.20 2.29 2.34 2.44 2.34 2.71
3.06 3.24 3.21 3.44 3.85 4.12 4.51 4.53 4.78 5.29 5.64 5.75 5.81 5.77 5.71 5.64 5.63 5.47 5.31 5.42 5.27 5.02 4.78 4.72 4.72 4.62 4.26 4.20 4.22 3.75 3.07 2.63 2.41 2.23 2.25 2.32 2.15 2.13 2.42 2.43 2.34 2.24 2.20
3.09 3.34 3.46 3.59 4.10 4.59 5.17 5.72 6.12 6.57 6.60 6.71 6.64 6.50 6.16 6.01 5.93 5.75 5.75 5.58 5.41 5.26 4.97 4.75 4.70 4.61 4.28 4.31 4.33 4.26 3.47 2.91 2.29 1.81 1.92 1.97 1.95 2.04 2.13 2.09 2.07 2.12 2.11
3.10 3.34 3.48 3.84 4.51 5.38 5.96 6.46 7.01 7.37 7.08 6.80 6.52 6.40 6.29 6.23 6.16 6.05 6.01 5.73 5.53 5.29 4.96 4.68 4.54 4.45 4.32 4.33 4.21 4.31 3.71 3.01 2.49 2.01 1.75 1.67 1.74 1.89 1.89 1.98 1.93 1.94 2.01
3.11 3.28 3.52 4.17 4.88 5.54 6.16 6.80 7.38 7.66 7.66 7.42 6.85 6.37 5.97 5.69 5.49 5.43 5.44 5.31 5.14 4.83 4.62 4.31 4.20 4.13 4.27 4.09 4.05 3.83 3.54 3.18 2.95 2.53 2.10 1.83 1.79 1.80 1.81 1.83 1.86 1.92 1.99
2.81 3.29 3.65 4.28 4.98 5.63 6.41 7.18 7.61 7.81 7.79 7.42 6.64 5.85 5.30 5.00 4.74 4.55 4.54 4.48 4.33 4.12 3.94 3.90 3.95 3.86 3.78 3.62 3.51 3.51 3.54 3.48 3.12 2.77 2.40 2.11 2.01 1.89 1.87 1.89 2.01 2.05 2.03
2.71 3.13 3.63 3.98 4.61 5.32 5.96 6.57 6.78 6.94 6.88 6.44 6.02 5.52 5.12 4.62 4.18 3.84 3.72 3.65 3.47 3.32 3.32 3.35 3.45 3.43 3.44 3.41 3.32 3.19 3.16 3.17 2.97 2.87 2.56 2.27 2.24 2.05 1.97 1.91 1.87 1.95 1.99

GEFSSE_prec_meanprecacc_306.txt.gz
Total_Precipitation_Accumulation
0.35 0.31 0.33 0.29 0.27 0.25 0.29 0.35 0.46 0.55 0.51 0.48 0.48 0.52 0.51 0.47 0.48 0.47 0.48 0.56 0.66 0.78 0.93 1.09 1.38 1.60 1.75 1.85 1.86 1.98 2.13 2.10 1.96 1.93 1.96 1.96 2.02 2.02 1.98 1.87 1.94 1.87 1.66
0.30 0.29 0.30 0.28 0.25 0.26 0.30 0.36 0.47 0.56 0.51 0.52 0.52 0.53 0.53 0.53 0.49 0.48 0.53 0.57 0.66 0.79 0.84 0.93 1.07 1.31 1.44 1.52 1.57 1.85 2.08 1.92 2.01 2.33 2.54 2.39 2.29 2.12 2.13 1.98 2.07 2.27 1.83
0.26 0.30 0.27 0.34 0.31 0.27 0.29 0.36 0.45 0.56 0.56 0.59 0.58 0.59 0.55 0.55 0.53 0.54 0.59 0.63 0.78 0.93 0.94 0.96 1.10 1.27 1.42 1.50 1.62 1.82 2.07 2.10 2.22 2.67 3.12 2.73 2.59 2.46 2.25 2.03 1.87 1.89 1.69
0.26 0.27 0.24 0.30 0.34 0.29 0.30 0.38 0.48 0.60 0.61 0.66 0.61 0.59 0.56 0.56 0.57 0.59 0.63 0.67 0.83 1.00 1.05 1.08 1.13 1.18 1.22 1.32 1.53 1.80 2.04 2.20 2.49 2.81 3.17 3.09 2.99 2.98 2.62 2.24 1.97 1.83 1.67
0.34 0.29 0.27 0.28 0.32 0.32 0.35 0.42 0.53 0.63 0.66 0.73 0.67 0.65 0.67 0.64 0.60 0.62 0.67 0.72 0.81 1.01 1.07 1.05 1.03 1.00 1.07 1.16 1.33 1.59 1.99 2.32 2.59 2.78 3.31 3.70 3.78 3.46 2.73 2.24 2.08 1.99 1.81
0.43 0.36 0.28 0.32 0.33 0.39 0.43 0.48 0.63 0.67 0.73 0.80 0.77 0.77 0.78 0.78 0.74 0.71 0.78 0.85 0.87 0.96 1.03 1.02 1.05 1.08 1.11 1.18 1.29 1.45 1.73 2.23 2.49 2.62 3.38 3.64 3.41 3.31 2.81 2.43 2.22 1.98 1.72
0.51 0.43 0.34 0.37 0.43 0.49 0.55 0.59 0.75 0.81 0.86 0.91 0.95 0.92 0.88 0.87 0.84 0.82 0.86 0.92 0.97 0.95 0.95 1.01 1.10 1.12 1.10 1.20 1.25 1.32 1.46 1.93 2.17 2.95 3.14 3.15 3.24 3.22 2.98 2.69 2.43 2.10 1.75
0.56 0.48 0.43 0.43 0.56 0.69 0.73 0.74 0.85 0.87 0.96 1.01 1.08 1.05 0.95 0.87 0.81 0.81 0.86 0.91 0.98 1.04 0.99 0.95 0.97 1.01 1.09 1.21 1.26 1.34 1.48 1.58 1.78 2.45 2.74 2.77 2.75 2.89 3.03 2.70 2.38 2.18 1.96
0.70 0.58 0.53 0.51 0.69 0.92 0.97 0.90 0.89 0.88 0.96 1.06 1.20 1.23 1.07 0.93 0.85 0.85 0.89 0.93 1.00 1.01 0.92 0.86 0.87 0.93 1.01 1.12 1.36 1.36 1.47 1.64 1.76 2.25 2.36 2.52 2.32 2.55 2.94 2.81 2.34 2.13 2.07
1.04 0.85 0.73 0.74 0.84 0.95 0.97 1.02 0.97 0.95 1.05 1.17 1.25 1.27 1.18 1.07 0.97 0.97 0.93 0.98 1.00 1.06 1.02 0.98 0.96 0.97 0.98 1.04 1.31 1.50 1.61 1.63 1.65 1.96 2.64 2.48 2.17 2.69 3.00 2.84 2.49 2.32 2.22
1.21 1.28 1.20 1.11 1.11 1.11 1.08 1.10 1.18 1.17 1.20 1.23 1.29 1.25 1.18 1.16 1.25 1.23 1.06 1.11 1.16 1.26 1.30 1.24 1.17 1.15 1.11 1.13 1.27 1.45 1.57 1.36 1.65 2.25 2.75 2.53 2.40 2.84 3.02 2.86 2.67 2.57 2.41
1.46 1.58 1.61 1.60 1.56 1.52 1.44 1.60 1.66 1.46 1.38 1.33 1.44 1.32 1.28 1.56 1.65 1.46 1.55 1.57 1.58 1.57 1.58 1.53 1.42 1.34 1.25 1.19 1.32 1.46 1.31 1.38 1.89 2.48 2.51 2.15 2.53 3.05 3.19 3.01 2.85 2.81 2.71
1.88 1.68 1.62 1.90 2.01 2.07 2.17 2.05 2.03 1.98 1.92 1.83 1.94 1.82 1.82 2.02 1.93 1.93 1.98 1.87 1.77 1.76 1.75 1.85 1.67 1.34 1.26 1.43 1.54 1.52 1.50 1.61 1.90 2.33 2.45 2.26 2.60 3.17 3.43 3.30 3.05 2.99 3.02
2.26 2.06 1.83 1.90 1.98 2.14 2.35 2.36 2.32 2.22 2.15 2.08 2.17 2.01 2.18 2.37 2.44 2.42 2.46 2.22 2.14 2.13 2.24 2.24 2.11 1.80 1.59 1.58 1.57 1.60 1.71 1.79 1.99 2.28 2.36 2.10 2.32 2.91 3.49 3.60 3.37 3.19 3.15
2.63 2.48 2.30 2.09 2.04 2.21 2.51 2.69 2.67 2.69 2.53 2.58 2.71 2.49 2.47 2.51 2.55 2.84 2.82 2.99 2.62 2.58 2.70 2.65 2.44 2.32 2.10 1.93 1.86 1.81 1.89 1.93 2.00 2.21 2.24 2.14 2.27 2.68 3.25 3.60 3.64 3.57 3.50
3.23 2.88 2.61 2.46 2.31 2.31 2.47 2.80 2.92 2.78 2.82 2.87 2.99 2.89 2.85 2.89 2.97 3.29 3.39 3.40 3.18 3.21 3.37 3.41 3.20 2.95 2.67 2.59 2.37 2.33 2.28 2.31 2.46 2.49 2.43 2.33 2.22 2.33 2.87 3.40 3.77 3.95 3.88
3.38 3.24 2.99 2.86 2.85 2.67 2.64 2.94 3.05 2.97 2.93 3.00 3.19 3.27 3.17 3.25 3.54 3.63 3.94 3.88 3.66 3.66 3.69 3.66 3.88 3.83 3.30 2.97 2.86 2.84 2.76 2.65 2.82 2.93 3.01 2.83 2.49 2.39 2.59 2.98 3.35 3.59 3.68
3.52 3.27 3.18 2.86 2.84 3.09 3.15 3.43 3.37 3.45 3.60 3.57 3.62 3.80 3.76 3.79 3.88 3.91 3.93 3.99 3.91 3.91 4.21 4.35 4.30 4.20 3.96 3.56 3.40 3.20 3.05 3.07 2.88 2.89 3.01 2.89 2.81 2.46 2.33 2.41 2.66 2.90 3.28
3.00 3.05 3.16 3.10 3.08 3.16 3.39 3.82 3.95 4.17 4.35 4.52 4.58 4.79 4.69 4.46 4.36 4.42 4.38 4.50 4.36 4.44 4.43 4.28 4.69 4.62 4.47 4.05 3.58 3.39 3.10 3.07 2.94 2.63 2.67 2.69 2.67 2.54 2.42 2.30 2.52 2.70 3.01
2.96 3.09 3.23 3.41 3.63 3.61 3.69 4.00 4.48 4.71 4.85 5.20 5.26 5.26 5.34 5.33 5.16 5.17 5.12 5.13 5.00 4.87 4.75 4.71 4.83 4.62 4.45 4.15 3.62 3.37 3.05 2.69 2.60 2.59 2.35 2.48 2.43 2.23 2.33 2.39 2.49 2.38 2.76
3.11 3.28 3.24 3.46 3.87 4.13 4.54 4.56 4.81 5.32 5.67 5.77 5.83 5.79 5.74 5.67 5.68 5.53 5.36 5.47 5.32 5.06 4.82 4.77 4.77 4.66 4.30 4.25 4.27 3.81 3.12 2.68 2.44 2.25 2.27 2.35 2.18 2.16 2.45 2.47 2.39 2.30 2.25
3.19 3.40 3.51 3.63 4.12 4.61 5.20 5.75 6.15 6.60 6.63 6.73 6.66 6.51 6.19 6.05 5.99 5.80 5.80 5.61 5.44 5.29 5.02 4.81 4.76 4.66 4.31 4.36 4.38 4.33 3.54 2.98 2.33 1.83 1.95 2.00 1.98 2.07 2.16 2.13 2.10 2.17 2.17
3.23 3.43 3.57 3.90 4.55 5.41 5.99 6.50 7.05 7.41 7.10 6.82 6.54 6.42 6.32 6.26 6.21 6.11 6.07 5.77 5.57 5.33 5.00 4.72 4.60 4.51 4.37 4.37 4.25 4.35 3.76 3.05 2.54 2.06 1.79 1.70 1.78 1.93 1.94 2.04 1.99 2.02 2.09
3.25 3.37 3.61 4.25 4.94 5.58 6.20 6.83 7.41 7.68 7.69 7.44 6.86 6.38 5.99 5.73 5.54 5.50 5.51 5.35 5.18 4.89 4.67 4.36 4.25 4.19 4.33 4.15 4.10 3.88 3.58 3.21 2.97 2.57 2.14 1.88 1.84 1.83 1.86 1.88 1.91 1.99 2.06
2.92 3.38 3.71 4.36 5.05 5.70 6.47 7.21 7.63 7.84 7.82 7.45 6.67 5.88 5.33 5.03 4.78 4.61 4.63 4.53 4.38 4.19 4.01 3.95 4.00 3.92 3.85 3.68 3.58 3.59 3.61 3.53 3.15 2.81 2.45 2.16 2.05 1.93 1.91 1.93 2.05 2.08 2.05
2.77 3.21 3.70 4.06 4.70 5.45 6.08 6.64 6.82 6.97 6.91 6.47 6.05 5.55 5.15 4.66 4.22 3.89 3.78 3.71 3.53 3.36 3.34 3.38 3.48 3.48 3.52 3.50 3.41 3.27 3.24 3.24 3.03 2.91 2.60 2.31 2.27 2.08 2.00 1.93 1.90 1.98 2.03

GEFSSE_prec_meanprecacc_312.txt.gz
Total_Precipitation_Accumulation
0.36 0.32 0.35 0.31 0.28 0.27 0.31 0.37 0.48 0.57 0.52 0.50 0.50 0.54 0.52 0.49 0.50 0.50 0.52 0.59 0.68 0.82 0.98 1.16 1.45 1.65 1.82 1.96 1.99 2.12 2.30 2.28 2.12 2.06 2.06 2.06 2.11 2.11 2.08 1.99 2.08 1.99 1.78
0.30 0.29 0.32 0.30 0.27 0.28 0.32 0.39 0.49 0.58 0.53 0.55 0.55 0.56 0.54 0.55 0.51 0.51 0.57 0.61 0.69 0.83 0.90 1.00 1.12 1.36 1.49 1.59 1.64 1.93 2.17 2.03 2.16 2.47 2.65 2.50 2.39 2.22 2.25 2.11 2.25 2.38 1.95
0.26 0.31 0.28 0.36 0.32 0.29 0.32 0.39 0.46 0.58 0.59 0.64 0.65 0.62 0.57 0.57 0.55 0.56 0.62 0.67 0.82 0.98 1.00 1.03 1.16 1.33 1.49 1.55 1.68 1.91 2.18 2.21 2.35 2.80 3.23 2.82 2.69 2.55 2.36 2.17 2.07 2.04 1.80
0.26 0.28 0.25 0.31 0.36 0.31 0.32 0.40 0.49 0.61 0.65 0.79 0.77 0.63 0.58 0.57 0.59 0.62 0.67 0.71 0.87 1.05 1.12 1.15 1.19 1.23 1.28 1.37 1.60 1.91 2.16 2.33 2.62 2.94 3.27 3.17 3.08 3.08 2.74 2.38 2.16 2.02 1.78
0.34 0.30 0.28 0.30 0.33 0.33 0.36 0.42 0.54 0.65 0.72 0.83 0.72 0.66 0.68 0.66 0.62 0.64 0.70 0.76 0.85 1.07 1.16 1.12 1.08 1.05 1.11 1.22 1.44 1.74 2.12 2.44 2.75 2.90 3.39 3.76 3.89 3.63 2.88 2.38 2.24 2.19 1.93
0.43 0.36 0.29 0.33 0.34 0.40 0.44 0.48 0.64 0.68 0.75 0.81 0.78 0.78 0.79 0.80 0.76 0.73 0.80 0.88 0.92 1.03 1.12 1.10 1.10 1.12 1.15 1.24 1.39 1.61 1.88 2.37 2.64 2.73 3.45 3.69 3.52 3.56 3.03 2.60 2.40 2.18 1.87
0.51 0.44 0.34 0.37 0.44 0.50 0.56 0.59 0.76 0.82 0.87 0.92 0.96 0.93 0.89 0.89 0.87 0.85 0.89 0.95 1.01 1.02 1.03 1.08 1.15 1.17 1.15 1.25 1.32 1.46 1.59 2.05 2.29 3.02 3.20 3.20 3.32 3.45 3.25 2.93 2.66 2.27 1.89
0.57 0.49 0.44 0.44 0.57 0.70 0.74 0.74 0.86 0.88 0.97 1.02 1.08 1.06 0.96 0.89 0.84 0.85 0.90 0.95 1.03 1.10 1.06 1.01 1.00 1.06 1.16 1.27 1.34 1.45 1.57 1.66 1.84 2.50 2.81 2.85 2.87 3.10 3.31 2.99 2.62 2.35 2.09
0.71 0.59 0.53 0.52 0.71 0.93 0.97 0.90 0.90 0.89 0.97 1.07 1.21 1.23 1.08 0.95 0.87 0.89 0.93 0.98 1.05 1.07 0.98 0.91 0.91 0.97 1.08 1.23 1.45 1.43 1.52 1.73 1.81 2.31 2.47 2.66 2.51 2.78 3.19 3.07 2.57 2.32 2.22
1.05 0.86 0.74 0.75 0.85 0.96 0.98 1.02 0.98 0.96 1.07 1.18 1.27 1.28 1.19 1.09 0.99 1.00 0.96 1.04 1.06 1.11 1.06 1.01 1.00 1.02 1.04 1.12 1.39 1.58 1.68 1.71 1.71 2.03 2.77 2.68 2.42 2.95 3.23 3.07 2.74 2.53 2.40
1.22 1.29 1.21 1.12 1.12 1.12 1.09 1.11 1.19 1.18 1.21 1.24 1.30 1.26 1.20 1.17 1.26 1.24 1.09 1.16 1.21 1.31 1.35 1.27 1.21 1.19 1.14 1.18 1.35 1.54 1.64 1.41 1.70 2.31 2.85 2.71 2.65 3.09 3.25 3.09 2.90 2.79 2.60
1.47 1.59 1.62 1.61 1.58 1.53 1.45 1.61 1.67 1.48 1.40 1.35 1.47 1.33 1.29 1.57 1.66 1.47 1.57 1.61 1.64 1.62 1.62 1.57 1.45 1.36 1.27 1.21 1.35 1.49 1.34 1.41 1.95 2.54 2.58 2.27 2.71 3.26 3.41 3.21 3.04 3.00 2.86
1.88 1.68 1.63 1.90 2.02 2.08 2.18 2.07 2.05 2.00 1.94 1.86 1.97 1.84 1.83 2.02 1.94 1.93 1.98 1.88 1.81 1.81 1.78 1.89 1.70 1.36 1.27 1.44 1.56 1.53 1.52 1.62 1.93 2.37 2.50 2.35 2.72 3.34 3.59 3.46 3.22 3.14 3.16
2.26 2.06 1.84 1.91 1.99 2.15 2.36 2.36 2.33 2.23 2.16 2.09 2.19 2.03 2.20 2.38 2.45 2.42 2.47 2.23 2.16 2.15 2.26 2.26 2.13 1.81 1.60 1.60 1.58 1.61 1.72 1.80 2.00 2.30 2.39 2.16 2.42 3.06 3.65 3.75 3.53 3.35 3.29
2.64 2.48 2.31 2.10 2.05 2.22 2.53 2.70 2.68 2.70 2.54 2.59 2.72 2.51 2.49 2.53 2.56 2.86 2.84 3.00 2.64 2.60 2.72 2.69 2.46 2.33 2.12 1.95 1.87 1.82 1.90 1.94 2.01 2.23 2.26 2.18 2.36 2.84 3.43 3.78 3.82 3.71 3.61
3.25 2.90 2.63 2.47 2.33 2.33 2.48 2.82 2.94 2.80 2.83 2.88 2.99 2.90 2.87 2.90 2.99 3.30 3.41 3.43 3.20 3.24 3.42 3.47 3.23 2.97 2.69 2.61 2.39 2.34 2.29 2.31 2.47 2.50 2.45 2.35 2.26 2.41 3.04 3.58 3.91 4.07 3.98
3.47 3.30 3.03 2.89 2.88 2.70 2.66 2.96 3.08 3.00 2.95 3.02 3.21 3.28 3.18 3.26 3.55 3.64 3.96 3.91 3.69 3.68 3.74 3.71 3.92 3.86 3.32 2.98 2.88 2.86 2.78 2.66 2.83 2.93 3.02 2.85 2.52 2.44 2.68 3.16 3.52 3.72 3.82
3.68 3.44 3.26 2.92 2.89 3.12 3.17 3.45 3.40 3.48 3.63 3.59 3.64 3.82 3.77 3.80 3.90 3.93 3.96 4.03 3.95 3.94 4.23 4.38 4.32 4.23 3.98 3.58 3.44 3.23 3.08 3.09 2.90 2.90 3.02 2.90 2.83 2.49 2.37 2.52 2.81 3.01 3.39
3.10 3.20 3.26 3.17 3.14 3.19 3.42 3.85 3.99 4.22 4.39 4.56 4.61 4.81 4.71 4.48 4.39 4.45 4.41 4.56 4.40 4.47 4.46 4.31 4.72 4.66 4.50 4.09 3.63 3.43 3.14 3.10 2.96 2.64 2.69 2.69 2.68 2.55 2.44 2.34 2.57 2.76 3.08
3.00 3.16 3.29 3.46 3.66 3.64 3.73 4.05 4.53 4.76 4.91 5.24 5.29 5.29 5.37 5.36 5.19 5.20 5.16 5.19 5.06 4.92 4.80 4.75 4.86 4.65 4.48 4.19 3.65 3.39 3.07 2.71 2.62 2.61 2.36 2.49 2.44 2.24 2.34 2.41 2.52 2.42 2.80
3.15 3.31 3.27 3.48 3.88 4.15 4.57 4.61 4.87 5.37 5.70 5.80 5.86 5.83 5.76 5.70 5.71 5.56 5.40 5.52 5.38 5.11 4.87 4.82 4.81 4.69 4.32 4.28 4.30 3.82 3.13 2.69 2.45 2.26 2.28 2.36 2.19 2.17 2.46 2.48 2.40 2.31 2.27
3.21 3.43 3.53 3.65 4.14 4.64 5.23 5.80 6.20 6.65 6.67 6.77 6.70 6.55 6.21 6.07 6.01 5.83 5.85 5.67 5.48 5.34 5.06 4.85 4.81 4.70 4.34 4.39 4.40 4.35 3.55 2.99 2.34 1.84 1.96 2.01 2.00 2.08 2.17 2.14 2.11 2.18 2.18
3.26 3.47 3.61 3.93 4.58 5.45 6.05 6.56 7.12 7.47 7.16 6.86 6.56 6.45 6.34 6.29 6.23 6.15 6.13 5.86 5.64 5.38 5.03 4.75 4.65 4.56 4.42 4.41 4.27 4.37 3.77 3.06 2.55 2.07 1.80 1.71 1.79 1.94 1.95 2.06 2.01 2.03 2.11
3.28 3.41 3.64 4.28 4.97 5.63 6.28 6.93 7.49 7.74 7.73 7.47 6.89 6.41 6.02 5.76 5.57 5.53 5.58 5.46 5.28 4.96 4.71 4.39 4.29 4.24 4.38 4.19 4.13 3.90 3.60 3.23 3.00 2.59 2.16 1.90 1.85 1.85 1.88 1.90 1.93 2.00 2.08
2.96 3.42 3.75 4.40 5.10 5.75 6.53 7.28 7.68 7.87 7.85 7.48 6.70 5.91 5.37 5.07 4.81 4.64 4.69 4.60 4.45 4.24 4.06 3.99 4.03 3.96 3.89 3.73 3.62 3.63 3.66 3.56 3.18 2.83 2.47 2.18 2.07 1.95 1.93 1.94 2.07 2.10 2.07
2.81 3.25 3.75 4.12 4.75 5.51 6.14 6.68 6.85 7.00 6.94 6.51 6.08 5.58 5.20 4.72 4.26 3.92 3.82 3.74 3.57 3.41 3.39 3.42 3.51 3.51 3.55 3.54 3.45 3.32 3.29 3.28 3.06 2.94 2.62 2.32 2.28 2.09 2.01 1.94 1.91 1.99 2.04